Observation data for Rotan on 07/20/2019      Previous  Date       Current Mesonet Observations  Soil Data  Daily Summary Page  Observations in Plain Language
KRO1 200500Z 16016KT 30/16 A2992 RMK A01 T02980164  RH  044%=      5-min Rain = 0
KRO1 200501Z 16016KT 30/17 A2992 RMK A01 T02980165  RH  045%=      5-min Rain = 0
KRO1 200502Z 16016KT 30/17 A2992 RMK A01 T02970165  RH  045%=      5-min Rain = 0
KRO1 200503Z 16016KT 30/17 A2992 RMK A01 T02970165  RH  045%=      5-min Rain = 0
KRO1 200504Z 16017KT 30/17 A2992 RMK A01 T02970165  RH  045%=      5-min Rain = 0
KRO1 200505Z 16016KT 30/17 A2992 RMK A01 T02960165  RH  045%=      5-min Rain = 0
KRO1 200506Z 16017KT 30/17 A2992 RMK A01 T02960166  RH  045%=      5-min Rain = 0
KRO1 200507Z 16018KT 30/17 A2992 RMK A01 T02960166  RH  045%=      5-min Rain = 0
KRO1 200508Z 16016KT 30/17 A2992 RMK A01 T02960166  RH  045%=      5-min Rain = 0
KRO1 200509Z 17020KT 30/17 A2992 RMK A01 T02970167  RH  046%=      5-min Rain = 0
KRO1 200510Z 16017KT 30/17 A2992 RMK A01 T02970167  RH  046%=      5-min Rain = 0
KRO1 200511Z 16017KT 30/17 A2992 RMK A01 T02970167  RH  046%=      5-min Rain = 0
KRO1 200512Z 16018KT 30/17 A2992 RMK A01 T02960168  RH  046%=      5-min Rain = 0
KRO1 200513Z 16020G25KT 30/17 A2992 RMK A01 T02960168  RH  046%=      5-min Rain = 0
KRO1 200514Z 16017G23KT 30/17 A2992 RMK A01 T02970168  RH  046%=      5-min Rain = 0
KRO1 200515Z 16016KT 30/17 A2992 RMK A01 T02960168  RH  046%=      5-min Rain = 0
KRO1 200516Z 16018KT 30/17 A2992 RMK A01 T02950168  RH  046%=      5-min Rain = 0
KRO1 200517Z 16017KT 30/17 A2992 RMK A01 T02950169  RH  046%=      5-min Rain = 0
KRO1 200518Z 16017G23KT 30/17 A2992 RMK A01 T02950169  RH  047%=      5-min Rain = 0
KRO1 200519Z 16017KT 30/17 A2992 RMK A01 T02950169  RH  047%=      5-min Rain = 0
KRO1 200520Z 16017KT 30/17 A2992 RMK A01 T02950169  RH  047%=      5-min Rain = 0
KRO1 200521Z 16018KT 30/17 A2992 RMK A01 T02950169  RH  047%=      5-min Rain = 0
KRO1 200522Z 16017KT 30/17 A2992 RMK A01 T02950169  RH  047%=      5-min Rain = 0
KRO1 200523Z 16018KT 30/17 A2992 RMK A01 T02950169  RH  047%=      5-min Rain = 0
KRO1 200524Z 16018KT 29/17 A2992 RMK A01 T02940170  RH  047%=      5-min Rain = 0
KRO1 200525Z 16015KT 29/17 A2992 RMK A01 T02940170  RH  047%=      5-min Rain = 0
KRO1 200526Z 16016KT 29/17 A2992 RMK A01 T02940170  RH  047%=      5-min Rain = 0
KRO1 200527Z 16017KT 29/17 A2992 RMK A01 T02940170  RH  047%=      5-min Rain = 0
KRO1 200528Z 17015KT 29/17 A2993 RMK A01 T02930170  RH  047%=      5-min Rain = 0
KRO1 200529Z 16015KT 29/17 A2993 RMK A01 T02930170  RH  048%=      5-min Rain = 0
KRO1 200530Z 16016KT 29/17 A2993 RMK A01 T02930170  RH  048%=      5-min Rain = 0
KRO1 200531Z 16016KT 29/17 A2993 RMK A01 T02920170  RH  048%=      5-min Rain = 0
KRO1 200532Z 16015KT 29/17 A2993 RMK A01 T02920170  RH  048%=      5-min Rain = 0
KRO1 200533Z 16014KT 29/17 A2993 RMK A01 T02920171  RH  048%=      5-min Rain = 0
KRO1 200534Z 16015KT 29/17 A2993 RMK A01 T02920171  RH  048%=      5-min Rain = 0
KRO1 200535Z 16016KT 29/17 A2993 RMK A01 T02910171  RH  048%=      5-min Rain = 0
KRO1 200536Z 16015KT 29/17 A2993 RMK A01 T02910171  RH  048%=      5-min Rain = 0
KRO1 200537Z 16016KT 29/17 A2993 RMK A01 T02910171  RH  048%=      5-min Rain = 0
KRO1 200538Z 16012KT 29/17 A2993 RMK A01 T02910171  RH  048%=      5-min Rain = 0
KRO1 200539Z 16014KT 29/17 A2993 RMK A01 T02900171  RH  049%=      5-min Rain = 0
KRO1 200540Z 16014KT 29/17 A2993 RMK A01 T02890171  RH  049%=      5-min Rain = 0
KRO1 200541Z 16015KT 29/17 A2993 RMK A01 T02890171  RH  049%=      5-min Rain = 0
KRO1 200542Z 16015KT 29/17 A2993 RMK A01 T02890171  RH  049%=      5-min Rain = 0
KRO1 200543Z 16013KT 29/17 A2993 RMK A01 T02890172  RH  049%=      5-min Rain = 0
KRO1 200544Z 16014KT 29/17 A2993 RMK A01 T02890172  RH  049%=      5-min Rain = 0
KRO1 200545Z 16015KT 29/17 A2993 RMK A01 T02890172  RH  049%=      5-min Rain = 0
KRO1 200546Z 16016KT 29/17 A2993 RMK A01 T02880172  RH  049%=      5-min Rain = 0
KRO1 200547Z 16015KT 29/17 A2993 RMK A01 T02880172  RH  049%=      5-min Rain = 0
KRO1 200548Z 16017KT 29/17 A2993 RMK A01 T02880172  RH  049%=      5-min Rain = 0
KRO1 200549Z 16015KT 29/17 A2993 RMK A01 T02890172  RH  049%=      5-min Rain = 0
KRO1 200550Z 16015KT 29/17 A2993 RMK A01 T02880172  RH  050%=      5-min Rain = 0
KRO1 200551Z 16015KT 29/17 A2993 RMK A01 T02880173  RH  050%=      5-min Rain = 0
KRO1 200552Z 16017KT 29/17 A2993 RMK A01 T02870172  RH  050%=      5-min Rain = 0
KRO1 200553Z 16017G22KT 29/17 A2993 RMK A01 T02870172  RH  050%=      5-min Rain = 0
KRO1 200554Z 16015KT 29/17 A2993 RMK A01 T02880172  RH  050%=      5-min Rain = 0
KRO1 200555Z 16015KT 29/17 A2993 RMK A01 T02880173  RH  050%=      5-min Rain = 0
KRO1 200556Z 16017KT 29/17 A2993 RMK A01 T02870173  RH  050%=      5-min Rain = 0
KRO1 200557Z 16016KT 29/17 A2992 RMK A01 T02870173  RH  050%=      5-min Rain = 0
KRO1 200558Z 16017KT 29/17 A2992 RMK A01 T02870173  RH  050%=      5-min Rain = 0
KRO1 200559Z 16016KT 29/17 A2992 RMK A01 T02870173  RH  050%=      5-min Rain = 0
KRO1 200600Z 16015KT 29/17 A2992 RMK A01 T02870173  RH  050%=      5-min Rain = 0
KRO1 200601Z 16015KT 29/17 A2992 RMK A01 T02860173  RH  050%=      5-min Rain = 0
KRO1 200602Z 16014KT 29/17 A2992 RMK A01 T02860174  RH  051%=      5-min Rain = 0
KRO1 200603Z 16014KT 29/17 A2992 RMK A01 T02850174  RH  051%=      5-min Rain = 0
KRO1 200604Z 16015KT 29/17 A2992 RMK A01 T02850174  RH  051%=      5-min Rain = 0
KRO1 200605Z 16014KT 28/17 A2992 RMK A01 T02840173  RH  051%=      5-min Rain = 0
KRO1 200606Z 16017KT 28/17 A2992 RMK A01 T02840174  RH  051%=      5-min Rain = 0
KRO1 200607Z 16015KT 28/17 A2992 RMK A01 T02840174  RH  051%=      5-min Rain = 0
KRO1 200608Z 16015KT 28/17 A2992 RMK A01 T02840174  RH  051%=      5-min Rain = 0
KRO1 200609Z 16014KT 28/17 A2992 RMK A01 T02840174  RH  051%=      5-min Rain = 0
KRO1 200610Z 16016KT 28/17 A2992 RMK A01 T02840174  RH  051%=      5-min Rain = 0
KRO1 200611Z 16013KT 28/17 A2992 RMK A01 T02840174  RH  051%=      5-min Rain = 0
KRO1 200612Z 16016KT 28/17 A2992 RMK A01 T02830174  RH  052%=      5-min Rain = 0
KRO1 200613Z 17015KT 28/18 A2992 RMK A01 T02830175  RH  052%=      5-min Rain = 0
KRO1 200614Z 16015KT 28/17 A2992 RMK A01 T02830174  RH  052%=      5-min Rain = 0
KRO1 200615Z 16013KT 28/18 A2992 RMK A01 T02830175  RH  052%=      5-min Rain = 0
KRO1 200616Z 16015KT 28/18 A2992 RMK A01 T02830175  RH  052%=      5-min Rain = 0
KRO1 200617Z 16014KT 28/17 A2992 RMK A01 T02820174  RH  052%=      5-min Rain = 0
KRO1 200618Z 16016KT 28/18 A2992 RMK A01 T02820175  RH  052%=      5-min Rain = 0
KRO1 200619Z 16015KT 28/18 A2992 RMK A01 T02820175  RH  052%=      5-min Rain = 0
KRO1 200620Z 16016KT 28/18 A2992 RMK A01 T02820175  RH  052%=      5-min Rain = 0
KRO1 200621Z 16014KT 28/18 A2992 RMK A01 T02820175  RH  052%=      5-min Rain = 0
KRO1 200622Z 16015KT 28/18 A2992 RMK A01 T02830175  RH  052%=      5-min Rain = 0
KRO1 200623Z 16014KT 28/18 A2992 RMK A01 T02820176  RH  052%=      5-min Rain = 0
KRO1 200624Z 16013KT 28/18 A2992 RMK A01 T02820175  RH  052%=      5-min Rain = 0
KRO1 200625Z 16014KT 28/18 A2992 RMK A01 T02820176  RH  053%=      5-min Rain = 0
KRO1 200626Z 16014KT 28/18 A2992 RMK A01 T02810176  RH  053%=      5-min Rain = 0
KRO1 200627Z 16016KT 28/18 A2992 RMK A01 T02810175  RH  053%=      5-min Rain = 0
KRO1 200628Z 16013KT 28/18 A2992 RMK A01 T02810176  RH  053%=      5-min Rain = 0
KRO1 200629Z 16012KT 28/18 A2992 RMK A01 T02810176  RH  053%=      5-min Rain = 0
KRO1 200630Z 16012KT 28/18 A2992 RMK A01 T02800176  RH  053%=      5-min Rain = 0
KRO1 200631Z 16014KT 28/18 A2992 RMK A01 T02790176  RH  053%=      5-min Rain = 0
KRO1 200632Z 16012KT 28/18 A2992 RMK A01 T02790176  RH  053%=      5-min Rain = 0
KRO1 200633Z 16014KT 28/18 A2992 RMK A01 T02790176  RH  053%=      5-min Rain = 0
KRO1 200634Z 16013KT 28/18 A2992 RMK A01 T02790176  RH  054%=      5-min Rain = 0
KRO1 200635Z 16013KT 28/18 A2992 RMK A01 T02790176  RH  054%=      5-min Rain = 0
KRO1 200636Z 16013KT 28/18 A2992 RMK A01 T02790176  RH  054%=      5-min Rain = 0
KRO1 200637Z 16013KT 28/18 A2992 RMK A01 T02780176  RH  054%=      5-min Rain = 0
KRO1 200638Z 16015KT 28/18 A2992 RMK A01 T02780176  RH  054%=      5-min Rain = 0
KRO1 200639Z 16012KT 28/18 A2992 RMK A01 T02780176  RH  054%=      5-min Rain = 0
KRO1 200640Z 16013KT 28/18 A2992 RMK A01 T02780176  RH  054%=      5-min Rain = 0
KRO1 200641Z 16015KT 28/18 A2992 RMK A01 T02780176  RH  054%=      5-min Rain = 0
KRO1 200642Z 15012KT 28/18 A2992 RMK A01 T02780177  RH  054%=      5-min Rain = 0
KRO1 200643Z 16013KT 28/18 A2992 RMK A01 T02770177  RH  054%=      5-min Rain = 0
KRO1 200644Z 15014KT 28/18 A2992 RMK A01 T02770177  RH  054%=      5-min Rain = 0
KRO1 200645Z 15012KT 28/18 A2992 RMK A01 T02770177  RH  055%=      5-min Rain = 0
KRO1 200646Z 15013KT 28/18 A2992 RMK A01 T02770177  RH  055%=      5-min Rain = 0
KRO1 200647Z 15014KT 28/18 A2992 RMK A01 T02760177  RH  055%=      5-min Rain = 0
KRO1 200648Z 15013KT 28/18 A2992 RMK A01 T02760177  RH  055%=      5-min Rain = 0
KRO1 200649Z 15014KT 28/18 A2992 RMK A01 T02760177  RH  055%=      5-min Rain = 0
KRO1 200650Z 15015KT 28/18 A2992 RMK A01 T02760177  RH  055%=      5-min Rain = 0
KRO1 200651Z 15014KT 28/18 A2992 RMK A01 T02760177  RH  055%=      5-min Rain = 0
KRO1 200652Z 15014KT 28/18 A2992 RMK A01 T02760177  RH  055%=      5-min Rain = 0
KRO1 200653Z 15014KT 28/18 A2992 RMK A01 T02770178  RH  055%=      5-min Rain = 0
KRO1 200654Z 15013KT 28/18 A2992 RMK A01 T02760178  RH  055%=      5-min Rain = 0
KRO1 200655Z 15014KT 28/18 A2992 RMK A01 T02760178  RH  055%=      5-min Rain = 0
KRO1 200656Z 15014KT 28/18 A2992 RMK A01 T02760178  RH  055%=      5-min Rain = 0
KRO1 200657Z 16011KT 28/18 A2992 RMK A01 T02760178  RH  055%=      5-min Rain = 0
KRO1 200658Z 15012KT 28/18 A2992 RMK A01 T02760178  RH  055%=      5-min Rain = 0
KRO1 200659Z 16012KT 28/18 A2992 RMK A01 T02750178  RH  056%=      5-min Rain = 0
KRO1 200700Z 16011KT 28/18 A2992 RMK A01 T02750178  RH  056%=      5-min Rain = 0
KRO1 200701Z 16012KT 28/18 A2992 RMK A01 T02750178  RH  056%=      5-min Rain = 0
KRO1 200702Z 16012KT 28/18 A2992 RMK A01 T02750178  RH  056%=      5-min Rain = 0
KRO1 200703Z 15012KT 27/18 A2992 RMK A01 T02740178  RH  056%=      5-min Rain = 0
KRO1 200704Z 16013KT 28/18 A2992 RMK A01 T02750179  RH  056%=      5-min Rain = 0
KRO1 200705Z 16012KT 28/18 A2992 RMK A01 T02750179  RH  056%=      5-min Rain = 0
KRO1 200706Z 16015KT 27/18 A2992 RMK A01 T02740179  RH  056%=      5-min Rain = 0
KRO1 200707Z 16012KT 28/18 A2992 RMK A01 T02750179  RH  056%=      5-min Rain = 0
KRO1 200708Z 16012KT 28/18 A2992 RMK A01 T02750179  RH  056%=      5-min Rain = 0
KRO1 200709Z 16011KT 28/18 A2992 RMK A01 T02750179  RH  056%=      5-min Rain = 0
KRO1 200710Z 16013KT 28/18 A2992 RMK A01 T02750179  RH  056%=      5-min Rain = 0
KRO1 200711Z 16013KT 28/18 A2992 RMK A01 T02750180  RH  056%=      5-min Rain = 0
KRO1 200712Z 16013KT 27/18 A2992 RMK A01 T02740179  RH  056%=      5-min Rain = 0
KRO1 200713Z 16014KT 27/18 A2992 RMK A01 T02740179  RH  056%=      5-min Rain = 0
KRO1 200714Z 16012KT 27/18 A2992 RMK A01 T02740179  RH  056%=      5-min Rain = 0
KRO1 200715Z 16013KT 27/18 A2992 RMK A01 T02740180  RH  056%=      5-min Rain = 0
KRO1 200716Z 16013KT 27/18 A2992 RMK A01 T02740180  RH  056%=      5-min Rain = 0
KRO1 200717Z 16011KT 27/18 A2992 RMK A01 T02740180  RH  056%=      5-min Rain = 0
KRO1 200718Z 16013KT 27/18 A2992 RMK A01 T02730180  RH  057%=      5-min Rain = 0
KRO1 200719Z 16012KT 27/18 A2992 RMK A01 T02730180  RH  057%=      5-min Rain = 0
KRO1 200720Z 16012KT 27/18 A2992 RMK A01 T02730180  RH  057%=      5-min Rain = 0
KRO1 200721Z 16012KT 27/18 A2992 RMK A01 T02730180  RH  057%=      5-min Rain = 0
KRO1 200722Z 16012KT 27/18 A2992 RMK A01 T02730181  RH  057%=      5-min Rain = 0
KRO1 200723Z 16011KT 27/18 A2992 RMK A01 T02730181  RH  057%=      5-min Rain = 0
KRO1 200724Z 16011KT 27/18 A2992 RMK A01 T02730181  RH  057%=      5-min Rain = 0
KRO1 200725Z 16012KT 27/18 A2992 RMK A01 T02720180  RH  057%=      5-min Rain = 0
KRO1 200726Z 16011KT 27/18 A2992 RMK A01 T02720181  RH  057%=      5-min Rain = 0
KRO1 200727Z 16012KT 27/18 A2992 RMK A01 T02720181  RH  057%=      5-min Rain = 0
KRO1 200728Z 16012KT 27/18 A2992 RMK A01 T02720181  RH  058%=      5-min Rain = 0
KRO1 200729Z 16013KT 27/18 A2992 RMK A01 T02720181  RH  058%=      5-min Rain = 0
KRO1 200730Z 16012KT 27/18 A2992 RMK A01 T02720182  RH  058%=      5-min Rain = 0
KRO1 200731Z 16011KT 27/18 A2992 RMK A01 T02720181  RH  058%=      5-min Rain = 0
KRO1 200732Z 16010KT 27/18 A2992 RMK A01 T02720181  RH  058%=      5-min Rain = 0
KRO1 200733Z 16011KT 27/18 A2992 RMK A01 T02710181  RH  058%=      5-min Rain = 0
KRO1 200734Z 16012KT 27/18 A2992 RMK A01 T02710181  RH  058%=      5-min Rain = 0
KRO1 200735Z 16012KT 27/18 A2992 RMK A01 T02710181  RH  058%=      5-min Rain = 0
KRO1 200736Z 16011KT 27/18 A2992 RMK A01 T02710182  RH  058%=      5-min Rain = 0
KRO1 200737Z 16012KT 27/18 A2992 RMK A01 T02710181  RH  058%=      5-min Rain = 0
KRO1 200738Z 16010KT 27/18 A2992 RMK A01 T02710181  RH  058%=      5-min Rain = 0
KRO1 200739Z 16011KT 27/18 A2992 RMK A01 T02710181  RH  058%=      5-min Rain = 0
KRO1 200740Z 16011KT 27/18 A2992 RMK A01 T02710182  RH  058%=      5-min Rain = 0
KRO1 200741Z 16010KT 27/18 A2992 RMK A01 T02710182  RH  058%=      5-min Rain = 0
KRO1 200742Z 16011KT 27/18 A2992 RMK A01 T02710182  RH  058%=      5-min Rain = 0
KRO1 200743Z 16010KT 27/18 A2992 RMK A01 T02710183  RH  058%=      5-min Rain = 0
KRO1 200744Z 16011KT 27/18 A2992 RMK A01 T02710182  RH  058%=      5-min Rain = 0
KRO1 200745Z 17010KT 27/18 A2992 RMK A01 T02710182  RH  058%=      5-min Rain = 0
KRO1 200746Z 16009KT 27/18 A2992 RMK A01 T02700182  RH  058%=      5-min Rain = 0
KRO1 200747Z 17009KT 27/18 A2992 RMK A01 T02700183  RH  059%=      5-min Rain = 0
KRO1 200748Z 16009KT 27/18 A2992 RMK A01 T02700182  RH  059%=      5-min Rain = 0
KRO1 200749Z 16010KT 27/18 A2992 RMK A01 T02700183  RH  059%=      5-min Rain = 0
KRO1 200750Z 16009KT 27/18 A2992 RMK A01 T02690183  RH  059%=      5-min Rain = 0
KRO1 200751Z 16009KT 27/18 A2992 RMK A01 T02700183  RH  059%=      5-min Rain = 0
KRO1 200752Z 16009KT 27/18 A2992 RMK A01 T02700183  RH  059%=      5-min Rain = 0
KRO1 200753Z 16009KT 27/18 A2992 RMK A01 T02690183  RH  059%=      5-min Rain = 0
KRO1 200754Z 16008KT 27/18 A2992 RMK A01 T02680183  RH  059%=      5-min Rain = 0
KRO1 200755Z 16010KT 27/18 A2992 RMK A01 T02680183  RH  060%=      5-min Rain = 0
KRO1 200756Z 16009KT 27/18 A2992 RMK A01 T02670182  RH  060%=      5-min Rain = 0
KRO1 200757Z 16009KT 27/18 A2992 RMK A01 T02680183  RH  060%=      5-min Rain = 0
KRO1 200758Z 16009KT 27/18 A2992 RMK A01 T02680182  RH  060%=      5-min Rain = 0
KRO1 200759Z 16010KT 27/18 A2992 RMK A01 T02680183  RH  060%=      5-min Rain = 0
KRO1 200800Z 16009KT 27/18 A2992 RMK A01 T02680183  RH  060%=      5-min Rain = 0
KRO1 200801Z 16010KT 27/18 A2992 RMK A01 T02680183  RH  060%=      5-min Rain = 0
KRO1 200802Z 16010KT 27/18 A2992 RMK A01 T02680183  RH  060%=      5-min Rain = 0
KRO1 200803Z 16010KT 27/18 A2992 RMK A01 T02680183  RH  060%=      5-min Rain = 0
KRO1 200804Z 16010KT 27/18 A2992 RMK A01 T02680183  RH  060%=      5-min Rain = 0
KRO1 200805Z 16010KT 27/18 A2992 RMK A01 T02680183  RH  060%=      5-min Rain = 0
KRO1 200806Z 16010KT 27/18 A2992 RMK A01 T02680183  RH  060%=      5-min Rain = 0
KRO1 200807Z 16012KT 27/18 A2992 RMK A01 T02680184  RH  060%=      5-min Rain = 0
KRO1 200808Z 16010KT 27/18 A2992 RMK A01 T02680184  RH  060%=      5-min Rain = 0
KRO1 200809Z 16010KT 27/18 A2992 RMK A01 T02680184  RH  060%=      5-min Rain = 0
KRO1 200810Z 16010KT 27/18 A2992 RMK A01 T02680184  RH  060%=      5-min Rain = 0
KRO1 200811Z 16011KT 27/18 A2992 RMK A01 T02680184  RH  060%=      5-min Rain = 0
KRO1 200812Z 16010KT 27/18 A2992 RMK A01 T02680184  RH  060%=      5-min Rain = 0
KRO1 200813Z 16011KT 27/18 A2992 RMK A01 T02680184  RH  060%=      5-min Rain = 0
KRO1 200814Z 16011KT 27/18 A2992 RMK A01 T02680184  RH  060%=      5-min Rain = 0
KRO1 200815Z 16010KT 27/18 A2992 RMK A01 T02680184  RH  060%=      5-min Rain = 0
KRO1 200816Z 16011KT 27/19 A2992 RMK A01 T02680185  RH  060%=      5-min Rain = 0
KRO1 200817Z 16011KT 27/19 A2992 RMK A01 T02670185  RH  061%=      5-min Rain = 0
KRO1 200818Z 16011KT 27/19 A2992 RMK A01 T02680185  RH  061%=      5-min Rain = 0
KRO1 200819Z 16010KT 27/19 A2992 RMK A01 T02670185  RH  061%=      5-min Rain = 0
KRO1 200820Z 16011KT 27/19 A2992 RMK A01 T02670185  RH  061%=      5-min Rain = 0
KRO1 200821Z 16011KT 27/19 A2992 RMK A01 T02670185  RH  061%=      5-min Rain = 0
KRO1 200822Z 16012KT 27/19 A2992 RMK A01 T02670185  RH  061%=      5-min Rain = 0
KRO1 200823Z 16012KT 27/19 A2992 RMK A01 T02670185  RH  061%=      5-min Rain = 0
KRO1 200824Z 16011KT 27/19 A2992 RMK A01 T02670185  RH  061%=      5-min Rain = 0
KRO1 200825Z 16011KT 27/19 A2992 RMK A01 T02680186  RH  061%=      5-min Rain = 0
KRO1 200826Z 16011KT 27/19 A2992 RMK A01 T02670186  RH  061%=      5-min Rain = 0
KRO1 200827Z 16012KT 27/19 A2992 RMK A01 T02670186  RH  061%=      5-min Rain = 0
KRO1 200828Z 16012KT 27/19 A2991 RMK A01 T02670186  RH  061%=      5-min Rain = 0
KRO1 200829Z 16012KT 27/19 A2991 RMK A01 T02670186  RH  061%=      5-min Rain = 0
KRO1 200830Z 16012KT 27/19 A2991 RMK A01 T02670186  RH  061%=      5-min Rain = 0
KRO1 200831Z 16012KT 27/19 A2991 RMK A01 T02670186  RH  061%=      5-min Rain = 0
KRO1 200832Z 16011KT 27/19 A2991 RMK A01 T02670186  RH  061%=      5-min Rain = 0
KRO1 200833Z 16011KT 27/19 A2991 RMK A01 T02670186  RH  061%=      5-min Rain = 0
KRO1 200834Z 16011KT 27/19 A2991 RMK A01 T02670186  RH  061%=      5-min Rain = 0
KRO1 200835Z 16011KT 27/19 A2991 RMK A01 T02670187  RH  061%=      5-min Rain = 0
KRO1 200836Z 16010KT 27/19 A2991 RMK A01 T02660186  RH  061%=      5-min Rain = 0
KRO1 200837Z 16011KT 27/19 A2991 RMK A01 T02660187  RH  062%=      5-min Rain = 0
KRO1 200838Z 16011KT 27/19 A2992 RMK A01 T02660187  RH  062%=      5-min Rain = 0
KRO1 200839Z 16011KT 27/19 A2991 RMK A01 T02650187  RH  062%=      5-min Rain = 0
KRO1 200840Z 16010KT 27/19 A2991 RMK A01 T02650187  RH  062%=      5-min Rain = 0
KRO1 200841Z 16011KT 27/19 A2992 RMK A01 T02650187  RH  062%=      5-min Rain = 0
KRO1 200842Z 17011KT 27/19 A2992 RMK A01 T02650187  RH  062%=      5-min Rain = 0
KRO1 200843Z 16011KT 27/19 A2992 RMK A01 T02650187  RH  062%=      5-min Rain = 0
KRO1 200844Z 16011KT 27/19 A2992 RMK A01 T02650187  RH  062%=      5-min Rain = 0
KRO1 200845Z 16010KT 27/19 A2992 RMK A01 T02650187  RH  062%=      5-min Rain = 0
KRO1 200846Z 16010KT 27/19 A2992 RMK A01 T02650188  RH  062%=      5-min Rain = 0
KRO1 200847Z 17011KT 27/19 A2992 RMK A01 T02650188  RH  063%=      5-min Rain = 0
KRO1 200848Z 17011KT 27/19 A2992 RMK A01 T02650188  RH  063%=      5-min Rain = 0
KRO1 200849Z 17011KT 26/19 A2992 RMK A01 T02640188  RH  063%=      5-min Rain = 0
KRO1 200850Z 17011KT 27/19 A2991 RMK A01 T02650188  RH  063%=      5-min Rain = 0
KRO1 200851Z 16010KT 27/19 A2991 RMK A01 T02650188  RH  063%=      5-min Rain = 0
KRO1 200852Z 17010KT 26/19 A2991 RMK A01 T02640188  RH  063%=      5-min Rain = 0
KRO1 200853Z 17010KT 26/19 A2991 RMK A01 T02630188  RH  063%=      5-min Rain = 0
KRO1 200854Z 17010KT 26/19 A2991 RMK A01 T02630188  RH  064%=      5-min Rain = 0
KRO1 200855Z 16011KT 26/19 A2992 RMK A01 T02630189  RH  064%=      5-min Rain = 0
KRO1 200856Z 17012KT 26/19 A2991 RMK A01 T02630189  RH  064%=      5-min Rain = 0
KRO1 200857Z 17011KT 26/19 A2992 RMK A01 T02640189  RH  064%=      5-min Rain = 0
KRO1 200858Z 17011KT 26/19 A2992 RMK A01 T02640189  RH  064%=      5-min Rain = 0
KRO1 200859Z 17011KT 26/19 A2992 RMK A01 T02640189  RH  064%=      5-min Rain = 0
KRO1 200900Z 17010KT 26/19 A2992 RMK A01 T02630190  RH  064%=      5-min Rain = 0
KRO1 200901Z 17011KT 26/19 A2992 RMK A01 T02630190  RH  064%=      5-min Rain = 0
KRO1 200902Z 17011KT 26/19 A2992 RMK A01 T02630190  RH  064%=      5-min Rain = 0
KRO1 200903Z 17011KT 26/19 A2992 RMK A01 T02630190  RH  064%=      5-min Rain = 0
KRO1 200904Z 18012KT 26/19 A2992 RMK A01 T02630190  RH  064%=      5-min Rain = 0
KRO1 200905Z 17011KT 26/19 A2992 RMK A01 T02630190  RH  064%=      5-min Rain = 0
KRO1 200906Z 17012KT 26/19 A2992 RMK A01 T02630190  RH  064%=      5-min Rain = 0
KRO1 200907Z 18011KT 26/19 A2992 RMK A01 T02630190  RH  065%=      5-min Rain = 0
KRO1 200908Z 17013KT 26/19 A2992 RMK A01 T02630191  RH  065%=      5-min Rain = 0
KRO1 200909Z 17012KT 26/19 A2992 RMK A01 T02630191  RH  065%=      5-min Rain = 0
KRO1 200910Z 17013KT 26/19 A2992 RMK A01 T02630192  RH  065%=      5-min Rain = 0
KRO1 200911Z 17013KT 26/19 A2992 RMK A01 T02630192  RH  065%=      5-min Rain = 0
KRO1 200912Z 17012KT 26/19 A2992 RMK A01 T02630192  RH  065%=      5-min Rain = 0
KRO1 200913Z 17014KT 26/19 A2992 RMK A01 T02640193  RH  065%=      5-min Rain = 0
KRO1 200914Z 17014KT 26/19 A2992 RMK A01 T02640194  RH  065%=      5-min Rain = 0
KRO1 200915Z 17015KT 26/19 A2992 RMK A01 T02640194  RH  065%=      5-min Rain = 0
KRO1 200916Z 17014KT 26/19 A2992 RMK A01 T02640194  RH  065%=      5-min Rain = 0
KRO1 200917Z 17014KT 26/19 A2992 RMK A01 T02640194  RH  065%=      5-min Rain = 0
KRO1 200918Z 17014KT 26/20 A2992 RMK A01 T02640195  RH  065%=      5-min Rain = 0
KRO1 200919Z 17014KT 26/20 A2992 RMK A01 T02640195  RH  066%=      5-min Rain = 0
KRO1 200920Z 17015KT 26/20 A2992 RMK A01 T02640195  RH  066%=      5-min Rain = 0
KRO1 200921Z 17015KT 26/20 A2992 RMK A01 T02640196  RH  066%=      5-min Rain = 0
KRO1 200922Z 17013G18KT 26/20 A2992 RMK A01 T02640196  RH  066%=      5-min Rain = 0
KRO1 200923Z 17018KT 26/20 A2992 RMK A01 T02640196  RH  066%=      5-min Rain = 0
KRO1 200924Z 17014KT 26/20 A2992 RMK A01 T02640196  RH  066%=      5-min Rain = 0
KRO1 200925Z 17015G20KT 26/20 A2992 RMK A01 T02640196  RH  066%=      5-min Rain = 0
KRO1 200926Z 17017KT 26/20 A2992 RMK A01 T02640197  RH  066%=      5-min Rain = 0
KRO1 200927Z 17017KT 27/20 A2992 RMK A01 T02650197  RH  066%=      5-min Rain = 0
KRO1 200928Z 17019KT 27/20 A2991 RMK A01 T02650197  RH  066%=      5-min Rain = 0
KRO1 200929Z 17016KT 27/20 A2992 RMK A01 T02650197  RH  066%=      5-min Rain = 0
KRO1 200930Z 18015KT 27/20 A2992 RMK A01 T02650197  RH  066%=      5-min Rain = 0
KRO1 200931Z 17015KT 27/20 A2992 RMK A01 T02650197  RH  066%=      5-min Rain = 0
KRO1 200932Z 17016KT 26/20 A2992 RMK A01 T02640198  RH  067%=      5-min Rain = 0
KRO1 200933Z 18015KT 26/20 A2992 RMK A01 T02640197  RH  067%=      5-min Rain = 0
KRO1 200934Z 17016KT 26/20 A2992 RMK A01 T02640198  RH  067%=      5-min Rain = 0
KRO1 200935Z 17016KT 26/20 A2992 RMK A01 T02640198  RH  067%=      5-min Rain = 0
KRO1 200936Z 18016KT 26/20 A2991 RMK A01 T02640198  RH  067%=      5-min Rain = 0
KRO1 200937Z 17014KT 26/20 A2991 RMK A01 T02640198  RH  067%=      5-min Rain = 0
KRO1 200938Z 17017KT 26/20 A2991 RMK A01 T02630199  RH  068%=      5-min Rain = 0
KRO1 200939Z 17017KT 26/20 A2991 RMK A01 T02630198  RH  068%=      5-min Rain = 0
KRO1 200940Z 17017KT 26/20 A2991 RMK A01 T02630198  RH  068%=      5-min Rain = 0
KRO1 200941Z 18016KT 26/20 A2991 RMK A01 T02630199  RH  068%=      5-min Rain = 0
KRO1 200942Z 17018KT 26/20 A2991 RMK A01 T02630199  RH  068%=      5-min Rain = 0
KRO1 200943Z 18017G22KT 26/20 A2991 RMK A01 T02640199  RH  068%=      5-min Rain = 0
KRO1 200944Z 18015KT 26/20 A2991 RMK A01 T02640199  RH  068%=      5-min Rain = 0
KRO1 200945Z 18015KT 26/20 A2991 RMK A01 T02630199  RH  068%=      5-min Rain = 0
KRO1 200946Z 18015KT 26/20 A2991 RMK A01 T02630199  RH  068%=      5-min Rain = 0
KRO1 200947Z 18015KT 26/20 A2991 RMK A01 T02620199  RH  068%=      5-min Rain = 0
KRO1 200948Z 18017KT 26/20 A2991 RMK A01 T02620200  RH  069%=      5-min Rain = 0
KRO1 200949Z 17016KT 26/20 A2991 RMK A01 T02620200  RH  069%=      5-min Rain = 0
KRO1 200950Z 17014KT 26/20 A2991 RMK A01 T02620200  RH  069%=      5-min Rain = 0
KRO1 200951Z 18016KT 26/20 A2991 RMK A01 T02620200  RH  069%=      5-min Rain = 0
KRO1 200952Z 18016KT 26/20 A2991 RMK A01 T02620200  RH  069%=      5-min Rain = 0
KRO1 200953Z 17014KT 26/20 A2991 RMK A01 T02610200  RH  069%=      5-min Rain = 0
KRO1 200954Z 18016KT 26/20 A2991 RMK A01 T02610200  RH  069%=      5-min Rain = 0
KRO1 200955Z 18015KT 26/20 A2991 RMK A01 T02610200  RH  069%=      5-min Rain = 0
KRO1 200956Z 18015KT 26/20 A2991 RMK A01 T02610200  RH  069%=      5-min Rain = 0
KRO1 200957Z 18017KT 26/20 A2991 RMK A01 T02610201  RH  069%=      5-min Rain = 0
KRO1 200958Z 18015KT 26/20 A2991 RMK A01 T02610200  RH  069%=      5-min Rain = 0
KRO1 200959Z 18015KT 26/20 A2991 RMK A01 T02610201  RH  069%=      5-min Rain = 0
KRO1 201000Z 18014KT 26/20 A2991 RMK A01 T02610201  RH  070%=      5-min Rain = 0
KRO1 201001Z 18014KT 26/20 A2991 RMK A01 T02600201  RH  070%=      5-min Rain = 0
KRO1 201002Z 18014KT 26/20 A2991 RMK A01 T02600201  RH  070%=      5-min Rain = 0
KRO1 201003Z 18015KT 26/20 A2991 RMK A01 T02590200  RH  070%=      5-min Rain = 0
KRO1 201004Z 17014KT 26/20 A2991 RMK A01 T02590201  RH  070%=      5-min Rain = 0
KRO1 201005Z 18015KT 26/20 A2991 RMK A01 T02590201  RH  070%=      5-min Rain = 0
KRO1 201006Z 17016KT 26/20 A2991 RMK A01 T02580200  RH  070%=      5-min Rain = 0
KRO1 201007Z 18015KT 26/20 A2991 RMK A01 T02580200  RH  070%=      5-min Rain = 0
KRO1 201008Z 17016KT 26/20 A2991 RMK A01 T02590201  RH  070%=      5-min Rain = 0
KRO1 201009Z 17016KT 26/20 A2991 RMK A01 T02580201  RH  071%=      5-min Rain = 0
KRO1 201010Z 18016KT 26/20 A2991 RMK A01 T02590201  RH  071%=      5-min Rain = 0
KRO1 201011Z 17015KT 26/20 A2991 RMK A01 T02580201  RH  071%=      5-min Rain = 0
KRO1 201012Z 17016KT 26/20 A2991 RMK A01 T02590202  RH  071%=      5-min Rain = 0
KRO1 201013Z 18014KT 26/20 A2991 RMK A01 T02590201  RH  071%=      5-min Rain = 0
KRO1 201014Z 18016KT 26/20 A2991 RMK A01 T02580201  RH  071%=      5-min Rain = 0
KRO1 201015Z 17015KT 26/20 A2991 RMK A01 T02580202  RH  071%=      5-min Rain = 0
KRO1 201016Z 18015KT 26/20 A2991 RMK A01 T02580202  RH  071%=      5-min Rain = 0
KRO1 201017Z 17014KT 26/20 A2991 RMK A01 T02580202  RH  071%=      5-min Rain = 0
KRO1 201018Z 18016KT 26/20 A2991 RMK A01 T02570202  RH  071%=      5-min Rain = 0
KRO1 201019Z 18015KT 26/20 A2991 RMK A01 T02570202  RH  071%=      5-min Rain = 0
KRO1 201020Z 18015KT 26/20 A2991 RMK A01 T02570202  RH  072%=      5-min Rain = 0
KRO1 201021Z 18015KT 26/20 A2991 RMK A01 T02570202  RH  072%=      5-min Rain = 0
KRO1 201022Z 17015KT 26/20 A2991 RMK A01 T02570202  RH  072%=      5-min Rain = 0
KRO1 201023Z 18013KT 26/20 A2991 RMK A01 T02570202  RH  072%=      5-min Rain = 0
KRO1 201024Z 18014KT 26/20 A2991 RMK A01 T02570202  RH  072%=      5-min Rain = 0
KRO1 201025Z 18015KT 26/20 A2991 RMK A01 T02560202  RH  072%=      5-min Rain = 0
KRO1 201026Z 17014KT 26/20 A2991 RMK A01 T02560202  RH  072%=      5-min Rain = 0
KRO1 201027Z 18013KT 26/20 A2991 RMK A01 T02560202  RH  072%=      5-min Rain = 0
KRO1 201028Z 18015KT 26/20 A2991 RMK A01 T02560202  RH  072%=      5-min Rain = 0
KRO1 201029Z 17014KT 26/20 A2991 RMK A01 T02550203  RH  073%=      5-min Rain = 0
KRO1 201030Z 18013KT 26/20 A2991 RMK A01 T02550202  RH  072%=      5-min Rain = 0
KRO1 201031Z 18014KT 26/20 A2991 RMK A01 T02550203  RH  073%=      5-min Rain = 0
KRO1 201032Z 18014KT 26/20 A2991 RMK A01 T02550202  RH  073%=      5-min Rain = 0
KRO1 201033Z 18014KT 26/20 A2991 RMK A01 T02550203  RH  073%=      5-min Rain = 0
KRO1 201034Z 18013KT 26/20 A2991 RMK A01 T02560203  RH  073%=      5-min Rain = 0
KRO1 201035Z 18013KT 26/20 A2991 RMK A01 T02550202  RH  073%=      5-min Rain = 0
KRO1 201036Z 18012KT 25/20 A2991 RMK A01 T02540202  RH  073%=      5-min Rain = 0
KRO1 201037Z 18014KT 25/20 A2991 RMK A01 T02540203  RH  073%=      5-min Rain = 0
KRO1 201038Z 18015KT 25/20 A2991 RMK A01 T02540202  RH  073%=      5-min Rain = 0
KRO1 201039Z 18015KT 25/20 A2991 RMK A01 T02540202  RH  073%=      5-min Rain = 0
KRO1 201040Z 18015KT 26/20 A2991 RMK A01 T02550202  RH  073%=      5-min Rain = 0
KRO1 201041Z 18015KT 26/20 A2991 RMK A01 T02550202  RH  073%=      5-min Rain = 0
KRO1 201042Z 18014KT 26/20 A2991 RMK A01 T02550202  RH  073%=      5-min Rain = 0
KRO1 201043Z 18014KT 26/20 A2991 RMK A01 T02550202  RH  073%=      5-min Rain = 0
KRO1 201044Z 17013KT 26/20 A2991 RMK A01 T02550202  RH  073%=      5-min Rain = 0
KRO1 201045Z 18013KT 26/20 A2991 RMK A01 T02550203  RH  073%=      5-min Rain = 0
KRO1 201046Z 17014KT 25/20 A2991 RMK A01 T02540203  RH  073%=      5-min Rain = 0
KRO1 201047Z 18014KT 25/20 A2991 RMK A01 T02540203  RH  073%=      5-min Rain = 0
KRO1 201048Z 18013KT 25/20 A2991 RMK A01 T02540203  RH  073%=      5-min Rain = 0
KRO1 201049Z 18013KT 25/20 A2992 RMK A01 T02540203  RH  073%=      5-min Rain = 0
KRO1 201050Z 18013KT 25/20 A2992 RMK A01 T02540203  RH  073%=      5-min Rain = 0
KRO1 201051Z 18013KT 25/20 A2991 RMK A01 T02530203  RH  074%=      5-min Rain = 0
KRO1 201052Z 18014KT 25/20 A2991 RMK A01 T02530203  RH  074%=      5-min Rain = 0
KRO1 201053Z 18014KT 25/20 A2991 RMK A01 T02530203  RH  074%=      5-min Rain = 0
KRO1 201054Z 18014KT 25/20 A2991 RMK A01 T02530203  RH  074%=      5-min Rain = 0
KRO1 201055Z 18012KT 25/20 A2991 RMK A01 T02530203  RH  074%=      5-min Rain = 0
KRO1 201056Z 18013KT 25/20 A2991 RMK A01 T02530203  RH  074%=      5-min Rain = 0
KRO1 201057Z 18016KT 25/20 A2991 RMK A01 T02520203  RH  074%=      5-min Rain = 0
KRO1 201058Z 18014KT 25/20 A2991 RMK A01 T02530203  RH  074%=      5-min Rain = 0
KRO1 201059Z 18014KT 25/20 A2991 RMK A01 T02540203  RH  073%=      5-min Rain = 0
KRO1 201100Z 18013KT 25/20 A2991 RMK A01 T02530203  RH  074%=      5-min Rain = 0
KRO1 201101Z 18013KT 25/20 A2991 RMK A01 T02530203  RH  074%=      5-min Rain = 0
KRO1 201102Z 18012KT 25/20 A2992 RMK A01 T02520203  RH  074%=      5-min Rain = 0
KRO1 201103Z 18014KT 25/20 A2992 RMK A01 T02520203  RH  074%=      5-min Rain = 0
KRO1 201104Z 18013KT 25/20 A2992 RMK A01 T02520203  RH  074%=      5-min Rain = 0
KRO1 201105Z 18013KT 25/20 A2992 RMK A01 T02520202  RH  074%=      5-min Rain = 0
KRO1 201106Z 18013KT 25/20 A2992 RMK A01 T02520202  RH  074%=      5-min Rain = 0
KRO1 201107Z 18013KT 25/20 A2992 RMK A01 T02520202  RH  074%=      5-min Rain = 0
KRO1 201108Z 18013KT 25/20 A2992 RMK A01 T02520202  RH  074%=      5-min Rain = 0
KRO1 201109Z 18014KT 25/20 A2992 RMK A01 T02520202  RH  074%=      5-min Rain = 0
KRO1 201110Z 18015KT 25/20 A2992 RMK A01 T02520202  RH  074%=      5-min Rain = 0
KRO1 201111Z 18013KT 25/20 A2992 RMK A01 T02520202  RH  074%=      5-min Rain = 0
KRO1 201112Z 18015KT 25/20 A2992 RMK A01 T02520202  RH  074%=      5-min Rain = 0
KRO1 201113Z 18016KT 25/20 A2992 RMK A01 T02520203  RH  074%=      5-min Rain = 0
KRO1 201114Z 18015KT 25/20 A2992 RMK A01 T02520203  RH  074%=      5-min Rain = 0
KRO1 201115Z 18014KT 25/20 A2992 RMK A01 T02520203  RH  074%=      5-min Rain = 0
KRO1 201116Z 18016KT 25/20 A2992 RMK A01 T02520202  RH  074%=      5-min Rain = 0
KRO1 201117Z 18013KT 25/20 A2992 RMK A01 T02520202  RH  074%=      5-min Rain = 0
KRO1 201118Z 18014KT 25/20 A2992 RMK A01 T02520202  RH  074%=      5-min Rain = 0
KRO1 201119Z 18015KT 25/20 A2992 RMK A01 T02520202  RH  074%=      5-min Rain = 0
KRO1 201120Z 18014KT 25/20 A2992 RMK A01 T02520203  RH  074%=      5-min Rain = 0
KRO1 201121Z 18013KT 25/20 A2992 RMK A01 T02510202  RH  074%=      5-min Rain = 0
KRO1 201122Z 18014KT 25/20 A2992 RMK A01 T02510202  RH  074%=      5-min Rain = 0
KRO1 201123Z 18014KT 25/20 A2992 RMK A01 T02510202  RH  074%=      5-min Rain = 0
KRO1 201124Z 18013KT 25/20 A2992 RMK A01 T02510202  RH  074%=      5-min Rain = 0
KRO1 201125Z 18014KT 25/20 A2992 RMK A01 T02510202  RH  074%=      5-min Rain = 0
KRO1 201126Z 18015KT 25/20 A2992 RMK A01 T02500202  RH  074%=      5-min Rain = 0
KRO1 201127Z 18013KT 25/20 A2992 RMK A01 T02510202  RH  074%=      5-min Rain = 0
KRO1 201128Z 18015KT 25/20 A2992 RMK A01 T02510202  RH  074%=      5-min Rain = 0
KRO1 201129Z 18013KT 25/20 A2992 RMK A01 T02510202  RH  074%=      5-min Rain = 0
KRO1 201130Z 18015KT 25/20 A2992 RMK A01 T02510202  RH  074%=      5-min Rain = 0
KRO1 201131Z 18013KT 25/20 A2992 RMK A01 T02510202  RH  074%=      5-min Rain = 0
KRO1 201132Z 17013KT 25/20 A2992 RMK A01 T02500202  RH  074%=      5-min Rain = 0
KRO1 201133Z 17013KT 25/20 A2992 RMK A01 T02500202  RH  075%=      5-min Rain = 0
KRO1 201134Z 18014KT 25/20 A2992 RMK A01 T02490201  RH  075%=      5-min Rain = 0
KRO1 201135Z 18012KT 25/20 A2992 RMK A01 T02490201  RH  075%=      5-min Rain = 0
KRO1 201136Z 18014KT 25/20 A2992 RMK A01 T02490201  RH  075%=      5-min Rain = 0
KRO1 201137Z 17013KT 25/20 A2992 RMK A01 T02490201  RH  075%=      5-min Rain = 0
KRO1 201138Z 17014KT 25/20 A2992 RMK A01 T02490201  RH  075%=      5-min Rain = 0
KRO1 201139Z 18014KT 25/20 A2992 RMK A01 T02490201  RH  074%=      5-min Rain = 0
KRO1 201140Z 18014KT 25/20 A2992 RMK A01 T02490201  RH  074%=      5-min Rain = 0
KRO1 201141Z 18013KT 25/20 A2992 RMK A01 T02490201  RH  075%=      5-min Rain = 0
KRO1 201142Z 18014KT 25/20 A2992 RMK A01 T02490201  RH  075%=      5-min Rain = 0
KRO1 201143Z 18014KT 25/20 A2992 RMK A01 T02490201  RH  075%=      5-min Rain = 0
KRO1 201144Z 18013KT 25/20 A2992 RMK A01 T02490201  RH  074%=      5-min Rain = 0
KRO1 201145Z 18015KT 25/20 A2992 RMK A01 T02490200  RH  074%=      5-min Rain = 0
KRO1 201146Z 18015KT 25/20 A2992 RMK A01 T02490200  RH  074%=      5-min Rain = 0
KRO1 201147Z 18015KT 25/20 A2992 RMK A01 T02490200  RH  074%=      5-min Rain = 0
KRO1 201148Z 17013KT 25/20 A2993 RMK A01 T02490200  RH  074%=      5-min Rain = 0
KRO1 201149Z 18015KT 25/20 A2993 RMK A01 T02490200  RH  074%=      5-min Rain = 0
KRO1 201150Z 18014KT 25/20 A2993 RMK A01 T02490200  RH  074%=      5-min Rain = 0
KRO1 201151Z 18014KT 25/20 A2993 RMK A01 T02490200  RH  074%=      5-min Rain = 0
KRO1 201152Z 17014KT 25/20 A2993 RMK A01 T02490200  RH  074%=      5-min Rain = 0
KRO1 201153Z 17013KT 25/20 A2993 RMK A01 T02490200  RH  074%=      5-min Rain = 0
KRO1 201154Z 17012KT 25/20 A2993 RMK A01 T02490200  RH  074%=      5-min Rain = 0
KRO1 201155Z 17014KT 25/20 A2993 RMK A01 T02480200  RH  074%=      5-min Rain = 0
KRO1 201156Z 18013KT 25/20 A2993 RMK A01 T02480199  RH  074%=      5-min Rain = 0
KRO1 201157Z 17013KT 25/20 A2993 RMK A01 T02480200  RH  074%=      5-min Rain = 0
KRO1 201158Z 17013KT 25/20 A2993 RMK A01 T02480200  RH  074%=      5-min Rain = 0
KRO1 201159Z 17013KT 25/20 A2993 RMK A01 T02480200  RH  074%=      5-min Rain = 0
KRO1 201200Z 17012KT 25/20 A2993 RMK A01 T02480200  RH  074%=      5-min Rain = 0
KRO1 201201Z 17012KT 25/20 A2993 RMK A01 T02480200  RH  074%=      5-min Rain = 0
KRO1 201202Z 17013KT 25/20 A2993 RMK A01 T02480199  RH  074%=      5-min Rain = 0
KRO1 201203Z 17013KT 25/20 A2993 RMK A01 T02470199  RH  074%=      5-min Rain = 0
KRO1 201204Z 17013KT 25/20 A2993 RMK A01 T02480199  RH  074%=      5-min Rain = 0
KRO1 201205Z 17014KT 25/20 A2993 RMK A01 T02480199  RH  074%=      5-min Rain = 0
KRO1 201206Z 17013KT 25/20 A2993 RMK A01 T02480199  RH  074%=      5-min Rain = 0
KRO1 201207Z 17012KT 25/20 A2993 RMK A01 T02480199  RH  074%=      5-min Rain = 0
KRO1 201208Z 17011KT 25/20 A2993 RMK A01 T02480199  RH  074%=      5-min Rain = 0
KRO1 201209Z 17012KT 25/20 A2993 RMK A01 T02470199  RH  074%=      5-min Rain = 0
KRO1 201210Z 17011KT 25/20 A2993 RMK A01 T02470199  RH  074%=      5-min Rain = 0
KRO1 201211Z 17012KT 25/20 A2993 RMK A01 T02470199  RH  074%=      5-min Rain = 0
KRO1 201212Z 17012KT 25/20 A2993 RMK A01 T02470199  RH  074%=      5-min Rain = 0
KRO1 201213Z 17011KT 25/20 A2993 RMK A01 T02470199  RH  074%=      5-min Rain = 0
KRO1 201214Z 17012KT 25/20 A2993 RMK A01 T02470199  RH  074%=      5-min Rain = 0
KRO1 201215Z 17012KT 25/20 A2993 RMK A01 T02470198  RH  074%=      5-min Rain = 0
KRO1 201216Z 17012KT 25/20 A2993 RMK A01 T02470198  RH  074%=      5-min Rain = 0
KRO1 201217Z 17011KT 25/20 A2993 RMK A01 T02470198  RH  074%=      5-min Rain = 0
KRO1 201218Z 17012KT 25/20 A2993 RMK A01 T02470198  RH  074%=      5-min Rain = 0
KRO1 201219Z 17012KT 25/20 A2993 RMK A01 T02480199  RH  074%=      5-min Rain = 0
KRO1 201220Z 17012KT 25/20 A2993 RMK A01 T02480198  RH  074%=      5-min Rain = 0
KRO1 201221Z 17012KT 25/20 A2993 RMK A01 T02480199  RH  074%=      5-min Rain = 0
KRO1 201222Z 17012KT 25/20 A2993 RMK A01 T02480199  RH  074%=      5-min Rain = 0
KRO1 201223Z 17013KT 25/20 A2993 RMK A01 T02480199  RH  074%=      5-min Rain = 0
KRO1 201224Z 17013KT 25/20 A2993 RMK A01 T02480199  RH  074%=      5-min Rain = 0
KRO1 201225Z 17012KT 25/20 A2993 RMK A01 T02490199  RH  074%=      5-min Rain = 0
KRO1 201226Z 17012KT 25/20 A2993 RMK A01 T02490199  RH  074%=      5-min Rain = 0
KRO1 201227Z 17013KT 25/20 A2993 RMK A01 T02490199  RH  074%=      5-min Rain = 0
KRO1 201228Z 17012KT 25/20 A2993 RMK A01 T02490199  RH  074%=      5-min Rain = 0
KRO1 201229Z 17013KT 25/20 A2993 RMK A01 T02490199  RH  074%=      5-min Rain = 0
KRO1 201230Z 17012KT 25/20 A2993 RMK A01 T02490199  RH  074%=      5-min Rain = 0
KRO1 201231Z 17014KT 25/20 A2993 RMK A01 T02500199  RH  074%=      5-min Rain = 0
KRO1 201232Z 17014KT 25/20 A2993 RMK A01 T02500199  RH  073%=      5-min Rain = 0
KRO1 201233Z 17014KT 25/20 A2993 RMK A01 T02500199  RH  073%=      5-min Rain = 0
KRO1 201234Z 17014KT 25/20 A2993 RMK A01 T02500199  RH  073%=      5-min Rain = 0
KRO1 201235Z 17013KT 25/20 A2993 RMK A01 T02510199  RH  073%=      5-min Rain = 0
KRO1 201236Z 17012KT 25/20 A2993 RMK A01 T02510200  RH  073%=      5-min Rain = 0
KRO1 201237Z 17014KT 25/20 A2993 RMK A01 T02510199  RH  073%=      5-min Rain = 0
KRO1 201238Z 18015KT 25/20 A2993 RMK A01 T02510199  RH  073%=      5-min Rain = 0
KRO1 201239Z 17015KT 25/20 A2993 RMK A01 T02520198  RH  072%=      5-min Rain = 0
KRO1 201240Z 18013KT 25/20 A2993 RMK A01 T02520199  RH  072%=      5-min Rain = 0
KRO1 201241Z 17014KT 25/20 A2993 RMK A01 T02520198  RH  072%=      5-min Rain = 0
KRO1 201242Z 17014KT 25/20 A2993 RMK A01 T02530199  RH  072%=      5-min Rain = 0
KRO1 201243Z 17014KT 25/20 A2993 RMK A01 T02530199  RH  072%=      5-min Rain = 0
KRO1 201244Z 18014KT 25/20 A2993 RMK A01 T02530199  RH  072%=      5-min Rain = 0
KRO1 201245Z 18016KT 25/20 A2993 RMK A01 T02530198  RH  072%=      5-min Rain = 0
KRO1 201246Z 18015KT 25/20 A2993 RMK A01 T02530198  RH  071%=      5-min Rain = 0
KRO1 201247Z 18014KT 25/20 A2993 RMK A01 T02540198  RH  071%=      5-min Rain = 0
KRO1 201248Z 18013KT 25/20 A2994 RMK A01 T02540198  RH  071%=      5-min Rain = 0
KRO1 201249Z 18013KT 25/20 A2994 RMK A01 T02540199  RH  071%=      5-min Rain = 0
KRO1 201250Z 18015KT 26/20 A2994 RMK A01 T02550198  RH  071%=      5-min Rain = 0
KRO1 201251Z 18015KT 26/20 A2994 RMK A01 T02550198  RH  071%=      5-min Rain = 0
KRO1 201252Z 17013KT 26/20 A2994 RMK A01 T02550198  RH  071%=      5-min Rain = 0
KRO1 201253Z 18016KT 26/20 A2994 RMK A01 T02550198  RH  071%=      5-min Rain = 0
KRO1 201254Z 18015KT 26/20 A2994 RMK A01 T02560198  RH  070%=      5-min Rain = 0
KRO1 201255Z 18015KT 26/20 A2994 RMK A01 T02560197  RH  070%=      5-min Rain = 0
KRO1 201256Z 17015KT 26/20 A2994 RMK A01 T02560197  RH  070%=      5-min Rain = 0
KRO1 201257Z 18017KT 26/20 A2994 RMK A01 T02570197  RH  070%=      5-min Rain = 0
KRO1 201258Z 18016KT 26/20 A2994 RMK A01 T02570197  RH  069%=      5-min Rain = 0
KRO1 201259Z 18017KT 26/20 A2994 RMK A01 T02570197  RH  069%=      5-min Rain = 0
KRO1 201300Z 18016KT 26/20 A2994 RMK A01 T02570197  RH  069%=      5-min Rain = 0
KRO1 201301Z 18015G20KT 26/20 A2994 RMK A01 T02580197  RH  069%=      5-min Rain = 0
KRO1 201302Z 17017KT 26/20 A2994 RMK A01 T02580197  RH  069%=      5-min Rain = 0
KRO1 201303Z 18016KT 26/20 A2994 RMK A01 T02590196  RH  068%=      5-min Rain = 0
KRO1 201304Z 18015KT 26/20 A2994 RMK A01 T02590197  RH  068%=      5-min Rain = 0
KRO1 201305Z 18017KT 26/20 A2994 RMK A01 T02590197  RH  068%=      5-min Rain = 0
KRO1 201306Z 18016KT 26/20 A2994 RMK A01 T02600196  RH  068%=      5-min Rain = 0
KRO1 201307Z 18014KT 26/20 A2994 RMK A01 T02600197  RH  068%=      5-min Rain = 0
KRO1 201308Z 18013KT 26/20 A2994 RMK A01 T02600197  RH  068%=      5-min Rain = 0
KRO1 201309Z 18015KT 26/20 A2994 RMK A01 T02610197  RH  068%=      5-min Rain = 0
KRO1 201310Z 18017KT 26/20 A2994 RMK A01 T02610196  RH  067%=      5-min Rain = 0
KRO1 201311Z 18018KT 26/20 A2994 RMK A01 T02610196  RH  067%=      5-min Rain = 0
KRO1 201312Z 18017KT 26/20 A2994 RMK A01 T02620196  RH  067%=      5-min Rain = 0
KRO1 201313Z 18017KT 26/20 A2994 RMK A01 T02610197  RH  067%=      5-min Rain = 0
KRO1 201314Z 18016KT 26/20 A2994 RMK A01 T02610196  RH  067%=      5-min Rain = 0
KRO1 201315Z 18018KT 26/20 A2994 RMK A01 T02620196  RH  067%=      5-min Rain = 0
KRO1 201316Z 17016KT 26/20 A2994 RMK A01 T02620196  RH  067%=      5-min Rain = 0
KRO1 201317Z 18016KT 26/20 A2994 RMK A01 T02620196  RH  067%=      5-min Rain = 0
KRO1 201318Z 17016KT 26/20 A2994 RMK A01 T02630196  RH  067%=      5-min Rain = 0
KRO1 201319Z 18017KT 26/20 A2994 RMK A01 T02630196  RH  067%=      5-min Rain = 0
KRO1 201320Z 18014KT 26/20 A2994 RMK A01 T02630197  RH  067%=      5-min Rain = 0
KRO1 201321Z 17018KT 26/20 A2994 RMK A01 T02640197  RH  067%=      5-min Rain = 0
KRO1 201322Z 17016KT 26/20 A2994 RMK A01 T02640197  RH  066%=      5-min Rain = 0
KRO1 201323Z 17016KT 27/20 A2994 RMK A01 T02650197  RH  067%=      5-min Rain = 0
KRO1 201324Z 17020KT 27/20 A2994 RMK A01 T02650197  RH  066%=      5-min Rain = 0
KRO1 201325Z 18018KT 27/20 A2994 RMK A01 T02660197  RH  066%=      5-min Rain = 0
KRO1 201326Z 17017KT 27/20 A2994 RMK A01 T02650197  RH  066%=      5-min Rain = 0
KRO1 201327Z 17018KT 27/20 A2994 RMK A01 T02650197  RH  066%=      5-min Rain = 0
KRO1 201328Z 18016KT 27/20 A2994 RMK A01 T02650198  RH  066%=      5-min Rain = 0
KRO1 201329Z 18016KT 27/20 A2994 RMK A01 T02660197  RH  066%=      5-min Rain = 0
KRO1 201330Z 17015KT 27/20 A2994 RMK A01 T02660198  RH  066%=      5-min Rain = 0
KRO1 201331Z 18017KT 27/20 A2994 RMK A01 T02670198  RH  066%=      5-min Rain = 0
KRO1 201332Z 17015KT 27/20 A2994 RMK A01 T02680198  RH  065%=      5-min Rain = 0
KRO1 201333Z 17016KT 27/20 A2994 RMK A01 T02680198  RH  066%=      5-min Rain = 0
KRO1 201334Z 17018KT 27/20 A2994 RMK A01 T02680198  RH  065%=      5-min Rain = 0
KRO1 201335Z 17017KT 27/20 A2994 RMK A01 T02680198  RH  065%=      5-min Rain = 0
KRO1 201336Z 18016KT 27/20 A2994 RMK A01 T02680197  RH  065%=      5-min Rain = 0
KRO1 201337Z 17016KT 27/20 A2994 RMK A01 T02680198  RH  065%=      5-min Rain = 0
KRO1 201338Z 17017KT 27/20 A2994 RMK A01 T02690198  RH  065%=      5-min Rain = 0
KRO1 201339Z 17020KT 27/20 A2994 RMK A01 T02700198  RH  065%=      5-min Rain = 0
KRO1 201340Z 18018KT 27/20 A2995 RMK A01 T02700197  RH  064%=      5-min Rain = 0
KRO1 201341Z 18019KT 27/20 A2995 RMK A01 T02700198  RH  065%=      5-min Rain = 0
KRO1 201342Z 18017KT 27/20 A2995 RMK A01 T02700198  RH  065%=      5-min Rain = 0
KRO1 201343Z 19017KT 27/20 A2995 RMK A01 T02700198  RH  064%=      5-min Rain = 0
KRO1 201344Z 18018KT 27/20 A2995 RMK A01 T02710198  RH  064%=      5-min Rain = 0
KRO1 201345Z 18019G24KT 27/20 A2995 RMK A01 T02710197  RH  064%=      5-min Rain = 0
KRO1 201346Z 18020KT 27/20 A2995 RMK A01 T02700197  RH  064%=      5-min Rain = 0
KRO1 201347Z 18019KT 27/20 A2995 RMK A01 T02700197  RH  064%=      5-min Rain = 0
KRO1 201348Z 18019KT 27/20 A2995 RMK A01 T02710197  RH  064%=      5-min Rain = 0
KRO1 201349Z 18017KT 27/20 A2995 RMK A01 T02710197  RH  064%=      5-min Rain = 0
KRO1 201350Z 18018KT 27/20 A2995 RMK A01 T02720197  RH  064%=      5-min Rain = 0
KRO1 201351Z 18016KT 27/20 A2995 RMK A01 T02720198  RH  064%=      5-min Rain = 0
KRO1 201352Z 17014KT 27/20 A2995 RMK A01 T02730198  RH  064%=      5-min Rain = 0
KRO1 201353Z 18015KT 28/20 A2995 RMK A01 T02750198  RH  063%=      5-min Rain = 0
KRO1 201354Z 18019KT 28/20 A2995 RMK A01 T02750198  RH  063%=      5-min Rain = 0
KRO1 201355Z 18018KT 28/20 A2995 RMK A01 T02760198  RH  062%=      5-min Rain = 0
KRO1 201356Z 18019KT 28/20 A2995 RMK A01 T02760198  RH  062%=      5-min Rain = 0
KRO1 201357Z 18018KT 28/20 A2995 RMK A01 T02750197  RH  062%=      5-min Rain = 0
KRO1 201358Z 18018KT 28/20 A2995 RMK A01 T02750197  RH  063%=      5-min Rain = 0
KRO1 201359Z 18017KT 28/20 A2995 RMK A01 T02750197  RH  062%=      5-min Rain = 0
KRO1 201400Z 17017KT 28/20 A2995 RMK A01 T02750197  RH  062%=      5-min Rain = 0
KRO1 201401Z 18018KT 28/20 A2995 RMK A01 T02750197  RH  062%=      5-min Rain = 0
KRO1 201402Z 17017KT 28/20 A2995 RMK A01 T02750197  RH  062%=      5-min Rain = 0
KRO1 201403Z 18018KT 28/20 A2995 RMK A01 T02750197  RH  062%=      5-min Rain = 0
KRO1 201404Z 17017KT 28/20 A2995 RMK A01 T02760197  RH  062%=      5-min Rain = 0
KRO1 201405Z 18017KT 28/20 A2995 RMK A01 T02770197  RH  062%=      5-min Rain = 0
KRO1 201406Z 18018KT 28/20 A2995 RMK A01 T02780197  RH  061%=      5-min Rain = 0
KRO1 201407Z 18015KT 28/20 A2995 RMK A01 T02780197  RH  061%=      5-min Rain = 0
KRO1 201408Z 18016KT 28/20 A2995 RMK A01 T02780198  RH  061%=      5-min Rain = 0
KRO1 201409Z 18019KT 28/20 A2995 RMK A01 T02790196  RH  061%=      5-min Rain = 0
KRO1 201410Z 18019KT 28/20 A2995 RMK A01 T02790196  RH  061%=      5-min Rain = 0
KRO1 201411Z 17019KT 28/20 A2995 RMK A01 T02790195  RH  060%=      5-min Rain = 0
KRO1 201412Z 18018KT 28/20 A2995 RMK A01 T02790196  RH  061%=      5-min Rain = 0
KRO1 201413Z 18019KT 28/20 A2995 RMK A01 T02790196  RH  061%=      5-min Rain = 0
KRO1 201414Z 18019KT 28/20 A2995 RMK A01 T02800196  RH  060%=      5-min Rain = 0
KRO1 201415Z 18015KT 28/20 A2995 RMK A01 T02800196  RH  060%=      5-min Rain = 0
KRO1 201416Z 18018KT 28/20 A2995 RMK A01 T02820197  RH  060%=      5-min Rain = 0
KRO1 201417Z 17017KT 28/20 A2995 RMK A01 T02820196  RH  059%=      5-min Rain = 0
KRO1 201418Z 18017KT 28/20 A2995 RMK A01 T02820196  RH  060%=      5-min Rain = 0
KRO1 201419Z 18017KT 28/20 A2995 RMK A01 T02830196  RH  059%=      5-min Rain = 0
KRO1 201420Z 17015KT 28/20 A2995 RMK A01 T02830196  RH  059%=      5-min Rain = 0
KRO1 201421Z 17018KT 28/20 A2995 RMK A01 T02840196  RH  059%=      5-min Rain = 0
KRO1 201422Z 17015KT 28/20 A2995 RMK A01 T02830196  RH  059%=      5-min Rain = 0
KRO1 201423Z 17018KT 28/20 A2995 RMK A01 T02830196  RH  059%=      5-min Rain = 0
KRO1 201424Z 17017KT 28/20 A2995 RMK A01 T02830196  RH  059%=      5-min Rain = 0
KRO1 201425Z 17017KT 28/20 A2995 RMK A01 T02840196  RH  059%=      5-min Rain = 0
KRO1 201426Z 18017KT 29/20 A2995 RMK A01 T02850197  RH  059%=      5-min Rain = 0
KRO1 201427Z 17016KT 29/20 A2995 RMK A01 T02860197  RH  058%=      5-min Rain = 0
KRO1 201428Z 18017G22KT 29/20 A2995 RMK A01 T02870195  RH  058%=      5-min Rain = 0
KRO1 201429Z 18020KT 29/20 A2995 RMK A01 T02870195  RH  058%=      5-min Rain = 0
KRO1 201430Z 17017KT 29/20 A2995 RMK A01 T02860195  RH  058%=      5-min Rain = 0
KRO1 201431Z 17018KT 29/20 A2995 RMK A01 T02860195  RH  058%=      5-min Rain = 0
KRO1 201432Z 17019KT 29/20 A2995 RMK A01 T02880195  RH  057%=      5-min Rain = 0
KRO1 201433Z 17017KT 29/20 A2995 RMK A01 T02870195  RH  057%=      5-min Rain = 0
KRO1 201434Z 18018KT 29/20 A2995 RMK A01 T02870195  RH  058%=      5-min Rain = 0
KRO1 201435Z 18017KT 29/20 A2995 RMK A01 T02870195  RH  057%=      5-min Rain = 0
KRO1 201436Z 17017KT 29/20 A2995 RMK A01 T02890195  RH  057%=      5-min Rain = 0
KRO1 201437Z 18019KT 29/19 A2995 RMK A01 T02890194  RH  057%=      5-min Rain = 0
KRO1 201438Z 18019KT 29/19 A2995 RMK A01 T02890194  RH  057%=      5-min Rain = 0
KRO1 201439Z 19017KT 29/19 A2995 RMK A01 T02890194  RH  056%=      5-min Rain = 0
KRO1 201440Z 18014KT 29/19 A2995 RMK A01 T02900194  RH  056%=      5-min Rain = 0
KRO1 201441Z 17014KT 29/20 A2995 RMK A01 T02920196  RH  056%=      5-min Rain = 0
KRO1 201442Z 17016KT 29/20 A2995 RMK A01 T02930196  RH  056%=      5-min Rain = 0
KRO1 201443Z 18014KT 29/19 A2995 RMK A01 T02940194  RH  055%=      5-min Rain = 0
KRO1 201444Z 18015KT 29/20 A2995 RMK A01 T02930196  RH  056%=      5-min Rain = 0
KRO1 201445Z 18016KT 29/19 A2995 RMK A01 T02940194  RH  055%=      5-min Rain = 0
KRO1 201446Z 18012KT 29/20 A2995 RMK A01 T02940195  RH  055%=      5-min Rain = 0
KRO1 201447Z 17015KT 30/19 A2995 RMK A01 T02960194  RH  054%=      5-min Rain = 0
KRO1 201448Z 17018KT 30/19 A2995 RMK A01 T02960194  RH  054%=      5-min Rain = 0
KRO1 201449Z 18015KT 30/20 A2995 RMK A01 T02950195  RH  055%=      5-min Rain = 0
KRO1 201450Z 17014KT 30/20 A2995 RMK A01 T02960195  RH  055%=      5-min Rain = 0
KRO1 201451Z 17015KT 30/20 A2995 RMK A01 T02970195  RH  054%=      5-min Rain = 0
KRO1 201452Z 17016KT 30/19 A2995 RMK A01 T02980194  RH  054%=      5-min Rain = 0
KRO1 201453Z 18017KT 30/19 A2995 RMK A01 T02990194  RH  053%=      5-min Rain = 0
KRO1 201454Z 19015KT 30/19 A2995 RMK A01 T02990194  RH  053%=      5-min Rain = 0
KRO1 201455Z 19013KT 30/20 A2995 RMK A01 T02990195  RH  054%=      5-min Rain = 0
KRO1 201456Z 18016KT 30/20 A2995 RMK A01 T03000195  RH  053%=      5-min Rain = 0
KRO1 201457Z 19015KT 30/19 A2995 RMK A01 T03000194  RH  053%=      5-min Rain = 0
KRO1 201458Z 18013KT 30/19 A2995 RMK A01 T02990194  RH  053%=      5-min Rain = 0
KRO1 201459Z 18015KT 30/20 A2995 RMK A01 T02990195  RH  054%=      5-min Rain = 0
KRO1 201500Z 19013KT 30/20 A2995 RMK A01 T03000195  RH  053%=      5-min Rain = 0
KRO1 201501Z 18015G20KT 30/19 A2994 RMK A01 T03010194  RH  053%=      5-min Rain = 0
KRO1 201502Z 17020KT 30/19 A2994 RMK A01 T03020192  RH  052%=      5-min Rain = 0
KRO1 201503Z 18016KT 30/19 A2994 RMK A01 T03020191  RH  052%=      5-min Rain = 0
KRO1 201504Z 18017KT 30/19 A2994 RMK A01 T03010193  RH  052%=      5-min Rain = 0
KRO1 201505Z 17018KT 30/19 A2994 RMK A01 T03010191  RH  052%=      5-min Rain = 0
KRO1 201506Z 18013KT 30/19 A2995 RMK A01 T03010192  RH  052%=      5-min Rain = 0
KRO1 201507Z 18019KT 30/19 A2994 RMK A01 T03020191  RH  052%=      5-min Rain = 0
KRO1 201508Z 18017KT 30/19 A2995 RMK A01 T03020191  RH  051%=      5-min Rain = 0
KRO1 201509Z 17018KT 30/19 A2995 RMK A01 T03020191  RH  051%=      5-min Rain = 0
KRO1 201510Z 17016KT 30/19 A2994 RMK A01 T03030191  RH  051%=      5-min Rain = 0
KRO1 201511Z 18018KT 30/19 A2994 RMK A01 T03040190  RH  051%=      5-min Rain = 0
KRO1 201512Z 18015KT 30/19 A2994 RMK A01 T03040191  RH  051%=      5-min Rain = 0
KRO1 201513Z 18016KT 31/19 A2994 RMK A01 T03050191  RH  051%=      5-min Rain = 0
KRO1 201514Z 18017KT 31/19 A2994 RMK A01 T03060191  RH  050%=      5-min Rain = 0
KRO1 201515Z 17015G20KT 31/19 A2994 RMK A01 T03070192  RH  050%=      5-min Rain = 0
KRO1 201516Z 18014KT 31/19 A2994 RMK A01 T03070193  RH  051%=      5-min Rain = 0
KRO1 201517Z 17015KT 31/19 A2994 RMK A01 T03080192  RH  050%=      5-min Rain = 0
KRO1 201518Z 19017KT 31/19 A2994 RMK A01 T03080191  RH  050%=      5-min Rain = 0
KRO1 201519Z 19018KT 31/19 A2994 RMK A01 T03090192  RH  050%=      5-min Rain = 0
KRO1 201520Z 19017KT 31/19 A2994 RMK A01 T03100191  RH  049%=      5-min Rain = 0
KRO1 201521Z 19018KT 31/19 A2994 RMK A01 T03100190  RH  049%=      5-min Rain = 0
KRO1 201522Z 18018KT 31/19 A2994 RMK A01 T03080188  RH  049%=      5-min Rain = 0
KRO1 201523Z 19018KT 31/19 A2994 RMK A01 T03080190  RH  049%=      5-min Rain = 0
KRO1 201524Z 19017KT 31/19 A2994 RMK A01 T03090189  RH  049%=      5-min Rain = 0
KRO1 201525Z 18017KT 31/19 A2994 RMK A01 T03100189  RH  049%=      5-min Rain = 0
KRO1 201526Z 19019KT 31/19 A2994 RMK A01 T03100188  RH  048%=      5-min Rain = 0
KRO1 201527Z 19020KT 31/19 A2994 RMK A01 T03090188  RH  049%=      5-min Rain = 0
KRO1 201528Z 19017KT 31/19 A2994 RMK A01 T03090189  RH  049%=      5-min Rain = 0
KRO1 201529Z 19014KT 31/19 A2994 RMK A01 T03080187  RH  049%=      5-min Rain = 0
KRO1 201530Z 18015KT 31/19 A2994 RMK A01 T03080189  RH  049%=      5-min Rain = 0
KRO1 201531Z 19014KT 31/19 A2994 RMK A01 T03090190  RH  049%=      5-min Rain = 0
KRO1 201532Z 18013KT 31/19 A2994 RMK A01 T03100191  RH  049%=      5-min Rain = 0
KRO1 201533Z 18015KT 31/19 A2994 RMK A01 T03120190  RH  048%=      5-min Rain = 0
KRO1 201534Z 18017KT 31/19 A2994 RMK A01 T03120189  RH  048%=      5-min Rain = 0
KRO1 201535Z 20017KT 31/19 A2994 RMK A01 T03120189  RH  048%=      5-min Rain = 0
KRO1 201536Z 20017KT 31/19 A2994 RMK A01 T03110190  RH  049%=      5-min Rain = 0
KRO1 201537Z 20016KT 31/19 A2994 RMK A01 T03120190  RH  048%=      5-min Rain = 0
KRO1 201538Z 20014G19KT 31/19 A2994 RMK A01 T03130190  RH  048%=      5-min Rain = 0
KRO1 201539Z 20018KT 31/19 A2994 RMK A01 T03130188  RH  048%=      5-min Rain = 0
KRO1 201540Z 20016KT 31/19 A2994 RMK A01 T03130189  RH  048%=      5-min Rain = 0
KRO1 201541Z 20017KT 31/19 A2994 RMK A01 T03140190  RH  048%=      5-min Rain = 0
KRO1 201542Z 19016KT 32/19 A2994 RMK A01 T03150188  RH  047%=      5-min Rain = 0
KRO1 201543Z 19015KT 32/19 A2994 RMK A01 T03150189  RH  047%=      5-min Rain = 0
KRO1 201544Z 20015KT 32/19 A2994 RMK A01 T03160190  RH  047%=      5-min Rain = 0
KRO1 201545Z 18015G20KT 32/19 A2994 RMK A01 T03180191  RH  047%=      5-min Rain = 0
KRO1 201546Z 18018KT 32/19 A2994 RMK A01 T03180190  RH  047%=      5-min Rain = 0
KRO1 201547Z 18014KT 32/19 A2994 RMK A01 T03170190  RH  047%=      5-min Rain = 0
KRO1 201548Z 19014KT 32/19 A2994 RMK A01 T03150189  RH  047%=      5-min Rain = 0
KRO1 201549Z 19016KT 32/19 A2994 RMK A01 T03160189  RH  047%=      5-min Rain = 0
KRO1 201550Z 19015KT 32/19 A2994 RMK A01 T03170188  RH  047%=      5-min Rain = 0
KRO1 201551Z 18014KT 32/19 A2994 RMK A01 T03160188  RH  047%=      5-min Rain = 0
KRO1 201552Z 19015KT 32/19 A2994 RMK A01 T03170189  RH  047%=      5-min Rain = 0
KRO1 201553Z 19016KT 32/19 A2994 RMK A01 T03190188  RH  046%=      5-min Rain = 0
KRO1 201554Z 21014KT 32/19 A2994 RMK A01 T03200188  RH  046%=      5-min Rain = 0
KRO1 201555Z 19014KT 32/19 A2994 RMK A01 T03200189  RH  046%=      5-min Rain = 0
KRO1 201556Z 18015KT 32/19 A2994 RMK A01 T03200191  RH  046%=      5-min Rain = 0
KRO1 201557Z 17017KT 32/19 A2994 RMK A01 T03200188  RH  046%=      5-min Rain = 0
KRO1 201558Z 17016KT 32/19 A2994 RMK A01 T03190188  RH  046%=      5-min Rain = 0
KRO1 201559Z 18015KT 32/19 A2994 RMK A01 T03170188  RH  046%=      5-min Rain = 0
KRO1 201600Z 18015KT 32/19 A2994 RMK A01 T03180189  RH  046%=      5-min Rain = 0
KRO1 201601Z 18016KT 32/19 A2994 RMK A01 T03200188  RH  046%=      5-min Rain = 0
KRO1 201602Z 17017KT 32/19 A2994 RMK A01 T03210189  RH  046%=      5-min Rain = 0
KRO1 201603Z 17015KT 32/19 A2993 RMK A01 T03200190  RH  046%=      5-min Rain = 0
KRO1 201604Z 17015KT 32/19 A2993 RMK A01 T03200190  RH  046%=      5-min Rain = 0
KRO1 201605Z 17015KT 32/19 A2993 RMK A01 T03200190  RH  046%=      5-min Rain = 0
KRO1 201606Z 17014KT 32/19 A2993 RMK A01 T03210188  RH  045%=      5-min Rain = 0
KRO1 201607Z 17016KT 32/19 A2993 RMK A01 T03210189  RH  046%=      5-min Rain = 0
KRO1 201608Z 17014KT 32/19 A2993 RMK A01 T03230189  RH  045%=      5-min Rain = 0
KRO1 201609Z 17015KT 32/19 A2993 RMK A01 T03230189  RH  045%=      5-min Rain = 0
KRO1 201610Z 17016G21KT 32/19 A2993 RMK A01 T03230189  RH  045%=      5-min Rain = 0
KRO1 201611Z 16015KT 32/19 A2993 RMK A01 T03240189  RH  045%=      5-min Rain = 0
KRO1 201612Z 17014KT 32/19 A2993 RMK A01 T03230189  RH  045%=      5-min Rain = 0
KRO1 201613Z 18013KT 32/19 A2993 RMK A01 T03220188  RH  045%=      5-min Rain = 0
KRO1 201614Z 19015KT 32/19 A2993 RMK A01 T03220185  RH  044%=      5-min Rain = 0
KRO1 201615Z 19017KT 32/18 A2993 RMK A01 T03230183  RH  043%=      5-min Rain = 0
KRO1 201616Z 19015KT 32/18 A2993 RMK A01 T03240183  RH  043%=      5-min Rain = 0
KRO1 201617Z 19013KT 33/19 A2993 RMK A01 T03270187  RH  044%=      5-min Rain = 0
KRO1 201618Z 18014KT 33/19 A2993 RMK A01 T03300189  RH  043%=      5-min Rain = 0
KRO1 201619Z 17018KT 33/19 A2993 RMK A01 T03310188  RH  043%=      5-min Rain = 0
KRO1 201620Z 19015KT 33/19 A2993 RMK A01 T03280186  RH  043%=      5-min Rain = 0
KRO1 201621Z 19015KT 33/19 A2993 RMK A01 T03270185  RH  043%=      5-min Rain = 0
KRO1 201622Z 19016KT 33/19 A2993 RMK A01 T03290186  RH  043%=      5-min Rain = 0
KRO1 201623Z 20018KT 33/19 A2993 RMK A01 T03310185  RH  042%=      5-min Rain = 0
KRO1 201624Z 19017KT 33/19 A2993 RMK A01 T03300186  RH  043%=      5-min Rain = 0
KRO1 201625Z 19014KT 33/19 A2993 RMK A01 T03310187  RH  043%=      5-min Rain = 0
KRO1 201626Z 20015KT 33/19 A2993 RMK A01 T03340187  RH  042%=      5-min Rain = 0
KRO1 201627Z 19015KT 34/19 A2993 RMK A01 T03350186  RH  041%=      5-min Rain = 0
KRO1 201628Z 18015KT 34/19 A2993 RMK A01 T03350187  RH  042%=      5-min Rain = 0
KRO1 201629Z 18014KT 34/19 A2993 RMK A01 T03350188  RH  042%=      5-min Rain = 0
KRO1 201630Z 18016KT 34/18 A2993 RMK A01 T03350184  RH  041%=      5-min Rain = 0
KRO1 201631Z 19014KT 33/19 A2993 RMK A01 T03320185  RH  042%=      5-min Rain = 0
KRO1 201632Z 18015KT 33/19 A2993 RMK A01 T03330186  RH  042%=      5-min Rain = 0
KRO1 201633Z 19017KT 33/19 A2993 RMK A01 T03330186  RH  042%=      5-min Rain = 0
KRO1 201634Z 19017KT 33/19 A2993 RMK A01 T03330187  RH  042%=      5-min Rain = 0
KRO1 201635Z 19016KT 33/19 A2993 RMK A01 T03340186  RH  042%=      5-min Rain = 0
KRO1 201636Z 20012KT 33/19 A2993 RMK A01 T03330187  RH  042%=      5-min Rain = 0
KRO1 201637Z 20015KT 33/19 A2993 RMK A01 T03330189  RH  042%=      5-min Rain = 0
KRO1 201638Z 19015G20KT 34/19 A2993 RMK A01 T03350187  RH  042%=      5-min Rain = 0
KRO1 201639Z 20015KT 34/19 A2993 RMK A01 T03350188  RH  042%=      5-min Rain = 0
KRO1 201640Z 20012KT 34/19 A2993 RMK A01 T03360188  RH  042%=      5-min Rain = 0
KRO1 201641Z 18013G18KT 34/19 A2993 RMK A01 T03370191  RH  042%=      5-min Rain = 0
KRO1 201642Z 18015KT 34/19 A2993 RMK A01 T03390188  RH  041%=      5-min Rain = 0
KRO1 201643Z 19014KT 34/19 A2993 RMK A01 T03400188  RH  041%=      5-min Rain = 0
KRO1 201644Z 20014KT 34/19 A2993 RMK A01 T03390187  RH  041%=      5-min Rain = 0
KRO1 201645Z 21013KT 34/19 A2993 RMK A01 T03380188  RH  041%=      5-min Rain = 0
KRO1 201646Z 19014KT 34/19 A2993 RMK A01 T03370187  RH  041%=      5-min Rain = 0
KRO1 201647Z 17014KT 34/19 A2993 RMK A01 T03370188  RH  041%=      5-min Rain = 0
KRO1 201648Z 18017KT 34/19 A2993 RMK A01 T03380189  RH  042%=      5-min Rain = 0
KRO1 201649Z 19018KT 34/19 A2993 RMK A01 T03390185  RH  040%=      5-min Rain = 0
KRO1 201650Z 19018KT 34/18 A2993 RMK A01 T03370184  RH  040%=      5-min Rain = 0
KRO1 201651Z 19016KT 34/19 A2993 RMK A01 T03360185  RH  041%=      5-min Rain = 0
KRO1 201652Z 19013KT 33/19 A2993 RMK A01 T03340186  RH  042%=      5-min Rain = 0
KRO1 201653Z 20015KT 34/19 A2993 RMK A01 T03360188  RH  042%=      5-min Rain = 0
KRO1 201654Z 20014KT 34/19 A2993 RMK A01 T03370188  RH  041%=      5-min Rain = 0
KRO1 201655Z 19014KT 34/19 A2993 RMK A01 T03360189  RH  042%=      5-min Rain = 0
KRO1 201656Z 18014G20KT 34/19 A2993 RMK A01 T03380190  RH  042%=      5-min Rain = 0
KRO1 201657Z 19019KT 34/19 A2993 RMK A01 T03400190  RH  041%=      5-min Rain = 0
KRO1 201658Z 18019KT 34/19 A2993 RMK A01 T03400189  RH  041%=      5-min Rain = 0
KRO1 201659Z 18014KT 34/19 A2993 RMK A01 T03380187  RH  041%=      5-min Rain = 0
KRO1 201700Z 18013KT 34/19 A2993 RMK A01 T03350187  RH  041%=      5-min Rain = 0
KRO1 201701Z 17013KT 34/19 A2993 RMK A01 T03360188  RH  042%=      5-min Rain = 0
KRO1 201702Z 17016KT 34/19 A2993 RMK A01 T03390188  RH  041%=      5-min Rain = 0
KRO1 201703Z 17016KT 34/19 A2993 RMK A01 T03400188  RH  041%=      5-min Rain = 0
KRO1 201704Z 18016KT 34/19 A2993 RMK A01 T03400188  RH  041%=      5-min Rain = 0
KRO1 201705Z 19015KT 34/19 A2993 RMK A01 T03410189  RH  041%=      5-min Rain = 0
KRO1 201706Z 18016KT 34/19 A2993 RMK A01 T03420190  RH  041%=      5-min Rain = 0
KRO1 201707Z 17015KT 34/19 A2993 RMK A01 T03430191  RH  041%=      5-min Rain = 0
KRO1 201708Z 17015KT 34/19 A2993 RMK A01 T03440190  RH  040%=      5-min Rain = 0
KRO1 201709Z 18011KT 34/19 A2993 RMK A01 T03420190  RH  041%=      5-min Rain = 0
KRO1 201710Z 19012KT 34/19 A2993 RMK A01 T03430192  RH  041%=      5-min Rain = 0
KRO1 201711Z 20012KT 35/19 A2992 RMK A01 T03460188  RH  040%=      5-min Rain = 0
KRO1 201712Z 18013KT 35/19 A2993 RMK A01 T03460192  RH  040%=      5-min Rain = 0
KRO1 201713Z 17014KT 35/19 A2993 RMK A01 T03480190  RH  039%=      5-min Rain = 0
KRO1 201714Z 17013KT 35/19 A2993 RMK A01 T03450189  RH  040%=      5-min Rain = 0
KRO1 201715Z 16014KT 34/19 A2992 RMK A01 T03430188  RH  040%=      5-min Rain = 0
KRO1 201716Z 19018KT 34/19 A2992 RMK A01 T03430189  RH  040%=      5-min Rain = 0
KRO1 201717Z 18017KT 34/19 A2992 RMK A01 T03440187  RH  040%=      5-min Rain = 0
KRO1 201718Z 18015KT 34/19 A2993 RMK A01 T03430188  RH  040%=      5-min Rain = 0
KRO1 201719Z 18013KT 34/19 A2993 RMK A01 T03410188  RH  041%=      5-min Rain = 0
KRO1 201720Z 20016KT 34/19 A2992 RMK A01 T03420191  RH  041%=      5-min Rain = 0
KRO1 201721Z 20017KT 35/19 A2992 RMK A01 T03490191  RH  040%=      5-min Rain = 0
KRO1 201722Z 19015KT 35/19 A2993 RMK A01 T03500188  RH  038%=      5-min Rain = 0
KRO1 201723Z 20014KT 35/19 A2993 RMK A01 T03480188  RH  039%=      5-min Rain = 0
KRO1 201724Z 21013KT 35/19 A2992 RMK A01 T03460190  RH  040%=      5-min Rain = 0
KRO1 201725Z 18012KT 35/19 A2993 RMK A01 T03460191  RH  040%=      5-min Rain = 0
KRO1 201726Z 18014KT 35/19 A2993 RMK A01 T03480190  RH  039%=      5-min Rain = 0
KRO1 201727Z 18016KT 35/19 A2993 RMK A01 T03490191  RH  039%=      5-min Rain = 0
KRO1 201728Z 20017KT 35/19 A2992 RMK A01 T03490189  RH  039%=      5-min Rain = 0
KRO1 201729Z 19014KT 35/19 A2993 RMK A01 T03480188  RH  039%=      5-min Rain = 0
KRO1 201730Z 19014KT 35/19 A2993 RMK A01 T03460189  RH  040%=      5-min Rain = 0
KRO1 201731Z 20015KT 35/19 A2993 RMK A01 T03450188  RH  040%=      5-min Rain = 0
KRO1 201732Z 19016G21KT 35/19 A2992 RMK A01 T03480188  RH  039%=      5-min Rain = 0
KRO1 201733Z 19016KT 35/19 A2993 RMK A01 T03520187  RH  038%=      5-min Rain = 0
KRO1 201734Z 20013KT 35/19 A2992 RMK A01 T03480186  RH  038%=      5-min Rain = 0
KRO1 201735Z 19013KT 35/19 A2992 RMK A01 T03470189  RH  039%=      5-min Rain = 0
KRO1 201736Z 18015KT 35/19 A2992 RMK A01 T03470189  RH  040%=      5-min Rain = 0
KRO1 201737Z 18016KT 35/19 A2992 RMK A01 T03480191  RH  040%=      5-min Rain = 0
KRO1 201738Z 18016KT 35/19 A2992 RMK A01 T03490190  RH  039%=      5-min Rain = 0
KRO1 201739Z 17013KT 35/19 A2992 RMK A01 T03480189  RH  039%=      5-min Rain = 0
KRO1 201740Z 17011KT 35/19 A2992 RMK A01 T03480190  RH  040%=      5-min Rain = 0
KRO1 201741Z 16014G19KT 35/19 A2992 RMK A01 T03470191  RH  040%=      5-min Rain = 0
KRO1 201742Z 17013KT 35/19 A2992 RMK A01 T03480191  RH  040%=      5-min Rain = 0
KRO1 201743Z 16012KT 35/19 A2992 RMK A01 T03480194  RH  040%=      5-min Rain = 0
KRO1 201744Z 17015KT 35/19 A2992 RMK A01 T03520193  RH  039%=      5-min Rain = 0
KRO1 201745Z 19018G24KT 35/19 A2992 RMK A01 T03530191  RH  039%=      5-min Rain = 0
KRO1 201746Z 18019KT 35/19 A2992 RMK A01 T03540191  RH  038%=      5-min Rain = 0
KRO1 201747Z 19016KT 35/19 A2992 RMK A01 T03500190  RH  039%=      5-min Rain = 0
KRO1 201748Z 20013KT 35/19 A2992 RMK A01 T03480189  RH  039%=      5-min Rain = 0
KRO1 201749Z 20014KT 35/19 A2992 RMK A01 T03470188  RH  039%=      5-min Rain = 0
KRO1 201750Z 18014KT 35/19 A2992 RMK A01 T03490187  RH  039%=      5-min Rain = 0
KRO1 201751Z 19016KT 35/19 A2992 RMK A01 T03500188  RH  038%=      5-min Rain = 0
KRO1 201752Z 20016KT 35/19 A2992 RMK A01 T03540187  RH  037%=      5-min Rain = 0
KRO1 201753Z 20016KT 36/19 A2992 RMK A01 T03550187  RH  037%=      5-min Rain = 0
KRO1 201754Z 20013KT 36/19 A2992 RMK A01 T03550185  RH  037%=      5-min Rain = 0
KRO1 201755Z 21011KT 36/19 A2992 RMK A01 T03550186  RH  037%=      5-min Rain = 0
KRO1 201756Z 20011KT 35/19 A2992 RMK A01 T03540187  RH  037%=      5-min Rain = 0
KRO1 201757Z 20015G21KT 36/19 A2992 RMK A01 T03550190  RH  038%=      5-min Rain = 0
KRO1 201758Z 21017KT 36/19 A2992 RMK A01 T03580188  RH  037%=      5-min Rain = 0
KRO1 201759Z 21013KT 36/19 A2992 RMK A01 T03570189  RH  037%=      5-min Rain = 0
KRO1 201800Z 19016KT 36/19 A2992 RMK A01 T03550189  RH  038%=      5-min Rain = 0
KRO1 201801Z 18017KT 36/19 A2992 RMK A01 T03560190  RH  038%=      5-min Rain = 0
KRO1 201802Z 17013KT 36/19 A2992 RMK A01 T03550188  RH  037%=      5-min Rain = 0
KRO1 201803Z 17015KT 35/19 A2992 RMK A01 T03530188  RH  038%=      5-min Rain = 0
KRO1 201804Z 18013KT 35/19 A2992 RMK A01 T03530191  RH  039%=      5-min Rain = 0
KRO1 201805Z 18014KT 35/19 A2992 RMK A01 T03540190  RH  038%=      5-min Rain = 0
KRO1 201806Z 21015KT 35/19 A2992 RMK A01 T03540189  RH  038%=      5-min Rain = 0
KRO1 201807Z 18016KT 36/19 A2992 RMK A01 T03570191  RH  038%=      5-min Rain = 0
KRO1 201808Z 18015KT 36/19 A2992 RMK A01 T03590189  RH  037%=      5-min Rain = 0
KRO1 201809Z 17013G18KT 36/19 A2992 RMK A01 T03560189  RH  037%=      5-min Rain = 0
KRO1 201810Z 18017KT 36/19 A2992 RMK A01 T03580190  RH  037%=      5-min Rain = 0
KRO1 201811Z 16014KT 36/19 A2992 RMK A01 T03610186  RH  036%=      5-min Rain = 0
KRO1 201812Z 16013KT 36/19 A2992 RMK A01 T03580187  RH  037%=      5-min Rain = 0
KRO1 201813Z 17014KT 36/19 A2992 RMK A01 T03560189  RH  038%=      5-min Rain = 0
KRO1 201814Z 18018KT 36/19 A2992 RMK A01 T03560189  RH  038%=      5-min Rain = 0
KRO1 201815Z 18017KT 36/19 A2992 RMK A01 T03560189  RH  037%=      5-min Rain = 0
KRO1 201816Z 18014KT 36/19 A2992 RMK A01 T03550189  RH  038%=      5-min Rain = 0
KRO1 201817Z 18014KT 36/19 A2992 RMK A01 T03580185  RH  036%=      5-min Rain = 0
KRO1 201818Z 18017KT 36/19 A2992 RMK A01 T03590187  RH  036%=      5-min Rain = 0
KRO1 201819Z 19015KT 36/19 A2991 RMK A01 T03610190  RH  037%=      5-min Rain = 0
KRO1 201820Z 19016KT 36/19 A2991 RMK A01 T03620189  RH  036%=      5-min Rain = 0
KRO1 201821Z 19016KT 36/19 A2991 RMK A01 T03620190  RH  036%=      5-min Rain = 0
KRO1 201822Z 19015KT 36/19 A2991 RMK A01 T03640189  RH  036%=      5-min Rain = 0
KRO1 201823Z 18014KT 36/19 A2991 RMK A01 T03630190  RH  036%=      5-min Rain = 0
KRO1 201824Z 18013KT 36/19 A2991 RMK A01 T03600190  RH  037%=      5-min Rain = 0
KRO1 201825Z 18015KT 36/19 A2991 RMK A01 T03590191  RH  037%=      5-min Rain = 0
KRO1 201826Z 19016KT 36/19 A2991 RMK A01 T03620189  RH  036%=      5-min Rain = 0
KRO1 201827Z 18017KT 36/19 A2991 RMK A01 T03620186  RH  036%=      5-min Rain = 0
KRO1 201828Z 19015KT 36/19 A2991 RMK A01 T03620187  RH  036%=      5-min Rain = 0
KRO1 201829Z 20016KT 37/19 A2991 RMK A01 T03670190  RH  036%=      5-min Rain = 0
KRO1 201830Z 20013KT 37/19 A2991 RMK A01 T03680187  RH  035%=      5-min Rain = 0
KRO1 201831Z 20014KT 37/19 A2991 RMK A01 T03670187  RH  035%=      5-min Rain = 0
KRO1 201832Z 18015KT 37/19 A2991 RMK A01 T03650188  RH  035%=      5-min Rain = 0
KRO1 201833Z 18016KT 37/19 A2991 RMK A01 T03650189  RH  036%=      5-min Rain = 0
KRO1 201834Z 18016G21KT 37/19 A2991 RMK A01 T03650189  RH  036%=      5-min Rain = 0
KRO1 201835Z 18017KT 36/19 A2991 RMK A01 T03630189  RH  036%=      5-min Rain = 0
KRO1 201836Z 18014KT 36/19 A2991 RMK A01 T03610190  RH  037%=      5-min Rain = 0
KRO1 201837Z 17015KT 36/19 A2991 RMK A01 T03630192  RH  037%=      5-min Rain = 0
KRO1 201838Z 19015KT 37/19 A2991 RMK A01 T03650192  RH  036%=      5-min Rain = 0
KRO1 201839Z 19017KT 37/19 A2991 RMK A01 T03650192  RH  036%=      5-min Rain = 0
KRO1 201840Z 19013G19KT 36/19 A2991 RMK A01 T03640191  RH  036%=      5-min Rain = 0
KRO1 201841Z 19014G22KT 36/19 A2991 RMK A01 T03640193  RH  037%=      5-min Rain = 0
KRO1 201842Z 16014G20KT 37/19 A2991 RMK A01 T03650191  RH  036%=      5-min Rain = 0
KRO1 201843Z 15019KT 37/19 A2991 RMK A01 T03660190  RH  036%=      5-min Rain = 0
KRO1 201844Z 15017KT 37/19 A2991 RMK A01 T03650189  RH  036%=      5-min Rain = 0
KRO1 201845Z 17015KT 36/19 A2991 RMK A01 T03630190  RH  036%=      5-min Rain = 0
KRO1 201846Z 19013KT 36/19 A2991 RMK A01 T03630189  RH  036%=      5-min Rain = 0
KRO1 201847Z 18013KT 36/19 A2991 RMK A01 T03640191  RH  036%=      5-min Rain = 0
KRO1 201848Z 16013KT 37/19 A2991 RMK A01 T03680192  RH  036%=      5-min Rain = 0
KRO1 201849Z 17015KT 37/19 A299 RMK A01 T03690192  RH  036%=      5-min Rain = 0
KRO1 201850Z 16010KT 37/19 A299 RMK A01 T03670192  RH  036%=      5-min Rain = 0
KRO1 201851Z 18014KT 37/19 A299 RMK A01 T03670193  RH  036%=      5-min Rain = 0
KRO1 201852Z 17015KT 37/19 A299 RMK A01 T03670189  RH  035%=      5-min Rain = 0
KRO1 201853Z 17014KT 37/19 A299 RMK A01 T03670187  RH  035%=      5-min Rain = 0
KRO1 201854Z 18017KT 37/19 A299 RMK A01 T03670188  RH  035%=      5-min Rain = 0
KRO1 201855Z 17012G17KT 37/19 A299 RMK A01 T03660188  RH  035%=      5-min Rain = 0
KRO1 201856Z 19014KT 37/19 A299 RMK A01 T03650189  RH  036%=      5-min Rain = 0
KRO1 201857Z 17012KT 37/19 A299 RMK A01 T03660190  RH  036%=      5-min Rain = 0
KRO1 201858Z 15013KT 37/19 A299 RMK A01 T03700188  RH  035%=      5-min Rain = 0
KRO1 201859Z 15012KT 37/19 A299 RMK A01 T03700188  RH  034%=      5-min Rain = 0
KRO1 201900Z 16013KT 37/19 A299 RMK A01 T03720187  RH  034%=      5-min Rain = 0
KRO1 201901Z 17014KT 37/19 A299 RMK A01 T03740185  RH  033%=      5-min Rain = 0
KRO1 201902Z 16014KT 37/18 A299 RMK A01 T03720183  RH  033%=      5-min Rain = 0
KRO1 201903Z 17011KT 37/18 A299 RMK A01 T03700183  RH  033%=      5-min Rain = 0
KRO1 201904Z 16015KT 37/19 A299 RMK A01 T03660189  RH  035%=      5-min Rain = 0
KRO1 201905Z 16015KT 37/19 A299 RMK A01 T03670189  RH  035%=      5-min Rain = 0
KRO1 201906Z 16015KT 37/19 A299 RMK A01 T03670189  RH  035%=      5-min Rain = 0
KRO1 201907Z 17015KT 37/19 A299 RMK A01 T03670190  RH  035%=      5-min Rain = 0
KRO1 201908Z 15012KT 37/19 A299 RMK A01 T03690189  RH  035%=      5-min Rain = 0
KRO1 201909Z 15012KT 37/19 A299 RMK A01 T03690190  RH  035%=      5-min Rain = 0
KRO1 201910Z 16013KT 37/19 A299 RMK A01 T03700191  RH  035%=      5-min Rain = 0
KRO1 201911Z 15014G19KT 37/19 A299 RMK A01 T03700190  RH  035%=      5-min Rain = 0
KRO1 201912Z 17016KT 37/19 A299 RMK A01 T03720189  RH  034%=      5-min Rain = 0
KRO1 201913Z 19012KT 37/19 A299 RMK A01 T03740187  RH  034%=      5-min Rain = 0
KRO1 201914Z 18015KT 38/19 A299 RMK A01 T03760187  RH  033%=      5-min Rain = 0
KRO1 201915Z 19012KT 38/19 A299 RMK A01 T03760186  RH  033%=      5-min Rain = 0
KRO1 201916Z 17014G19KT 38/19 A2989 RMK A01 T03750186  RH  033%=      5-min Rain = 0
KRO1 201917Z 17016KT 37/18 A2989 RMK A01 T03740184  RH  033%=      5-min Rain = 0
KRO1 201918Z 17016KT 37/19 A2989 RMK A01 T03730186  RH  034%=      5-min Rain = 0
KRO1 201919Z 17016KT 37/19 A299 RMK A01 T03740185  RH  033%=      5-min Rain = 0
KRO1 201920Z 17012KT 37/18 A299 RMK A01 T03740184  RH  033%=      5-min Rain = 0
KRO1 201921Z 16013KT 37/18 A2989 RMK A01 T03710183  RH  033%=      5-min Rain = 0
KRO1 201922Z 16011KT 37/18 A2989 RMK A01 T03690183  RH  034%=      5-min Rain = 0
KRO1 201923Z 17010KT 37/18 A2989 RMK A01 T03730182  RH  033%=      5-min Rain = 0
KRO1 201924Z 18009G14KT 37/18 A2989 RMK A01 T03740182  RH  032%=      5-min Rain = 0
KRO1 201925Z 19013KT 37/19 A2989 RMK A01 T03740188  RH  034%=      5-min Rain = 0
KRO1 201926Z 18010KT 38/19 A2989 RMK A01 T03760188  RH  033%=      5-min Rain = 0
KRO1 201927Z 16014KT 38/19 A2989 RMK A01 T03770187  RH  033%=      5-min Rain = 0
KRO1 201928Z 15013KT 38/18 A2989 RMK A01 T03770184  RH  033%=      5-min Rain = 0
KRO1 201929Z 15013KT 38/18 A2989 RMK A01 T03780181  RH  032%=      5-min Rain = 0
KRO1 201930Z 17014KT 38/18 A2989 RMK A01 T03770181  RH  032%=      5-min Rain = 0
KRO1 201931Z 17018KT 38/18 A2989 RMK A01 T03760180  RH  032%=      5-min Rain = 0
KRO1 201932Z 17013KT 37/18 A2989 RMK A01 T03740180  RH  032%=      5-min Rain = 0
KRO1 201933Z 19014KT 37/18 A2989 RMK A01 T03730182  RH  033%=      5-min Rain = 0
KRO1 201934Z 18013KT 37/18 A2989 RMK A01 T03720182  RH  033%=      5-min Rain = 0
KRO1 201935Z 17015KT 38/18 A2989 RMK A01 T03760182  RH  032%=      5-min Rain = 0
KRO1 201936Z 17010G15KT 38/18 A2989 RMK A01 T03790182  RH  032%=      5-min Rain = 0
KRO1 201937Z 17012KT 38/19 A2989 RMK A01 T03780185  RH  032%=      5-min Rain = 0
KRO1 201938Z 17010KT 38/18 A2989 RMK A01 T03780184  RH  032%=      5-min Rain = 0
KRO1 201939Z 17013KT 38/19 A2989 RMK A01 T03770185  RH  033%=      5-min Rain = 0
KRO1 201940Z 17016KT 38/19 A2989 RMK A01 T03780186  RH  033%=      5-min Rain = 0
KRO1 201941Z 17013KT 38/19 A2989 RMK A01 T03800185  RH  032%=      5-min Rain = 0
KRO1 201942Z 17014KT 38/18 A2989 RMK A01 T03780184  RH  032%=      5-min Rain = 0
KRO1 201943Z 16013KT 38/18 A2989 RMK A01 T03770181  RH  032%=      5-min Rain = 0
KRO1 201944Z 16012KT 38/18 A2988 RMK A01 T03770177  RH  031%=      5-min Rain = 0
KRO1 201945Z 18014G19KT 38/18 A2988 RMK A01 T03760176  RH  031%=      5-min Rain = 0
KRO1 201946Z 18016KT 38/18 A2988 RMK A01 T03760179  RH  032%=      5-min Rain = 0
KRO1 201947Z 19014KT 38/18 A2988 RMK A01 T03780176  RH  031%=      5-min Rain = 0
KRO1 201948Z 17012KT 38/18 A2988 RMK A01 T03790175  RH  030%=      5-min Rain = 0
KRO1 201949Z 17011KT 38/18 A2988 RMK A01 T03780175  RH  031%=      5-min Rain = 0
KRO1 201950Z 17010KT 38/17 A2988 RMK A01 T03760174  RH  031%=      5-min Rain = 0
KRO1 201951Z 17013KT 38/18 A2988 RMK A01 T03800177  RH  031%=      5-min Rain = 0
KRO1 201952Z 17013KT 38/18 A2988 RMK A01 T03800181  RH  031%=      5-min Rain = 0
KRO1 201953Z 16013KT 38/18 A2988 RMK A01 T03790180  RH  031%=      5-min Rain = 0
KRO1 201954Z 18016KT 38/18 A2988 RMK A01 T03780177  RH  031%=      5-min Rain = 0
KRO1 201955Z 18014KT 38/18 A2988 RMK A01 T03790176  RH  030%=      5-min Rain = 0
KRO1 201956Z 15015KT 38/18 A2988 RMK A01 T03800177  RH  031%=      5-min Rain = 0
KRO1 201957Z 15012KT 38/18 A2988 RMK A01 T03800178  RH  031%=      5-min Rain = 0
KRO1 201958Z 17014KT 38/18 A2988 RMK A01 T03800181  RH  031%=      5-min Rain = 0
KRO1 201959Z 17011KT 38/18 A2988 RMK A01 T03790179  RH  031%=      5-min Rain = 0
KRO1 202000Z 18009G14KT 38/18 A2988 RMK A01 T03770182  RH  032%=      5-min Rain = 0
KRO1 202001Z 18012KT 38/19 A2987 RMK A01 T03770186  RH  033%=      5-min Rain = 0
KRO1 202002Z 15014G21KT 38/19 A2987 RMK A01 T03810187  RH  032%=      5-min Rain = 0
KRO1 202003Z 16015KT 38/19 A2987 RMK A01 T03840186  RH  032%=      5-min Rain = 0
KRO1 202004Z 17016KT 38/18 A2987 RMK A01 T03840180  RH  031%=      5-min Rain = 0
KRO1 202005Z 17015KT 38/18 A2987 RMK A01 T03810177  RH  030%=      5-min Rain = 0
KRO1 202006Z 17015KT 38/18 A2987 RMK A01 T03800175  RH  030%=      5-min Rain = 0
KRO1 202007Z 17013KT 38/18 A2987 RMK A01 T03810176  RH  030%=      5-min Rain = 0
KRO1 202008Z 17013KT 38/18 A2987 RMK A01 T03830175  RH  030%=      5-min Rain = 0
KRO1 202009Z 17009KT 38/17 A2987 RMK A01 T03830174  RH  029%=      5-min Rain = 0
KRO1 202010Z 16009KT 38/17 A2987 RMK A01 T03830174  RH  030%=      5-min Rain = 0
KRO1 202011Z 14013KT 38/18 A2987 RMK A01 T03840178  RH  030%=      5-min Rain = 0
KRO1 202012Z 15009KT 38/18 A2987 RMK A01 T03820179  RH  031%=      5-min Rain = 0
KRO1 202013Z 14011KT 38/18 A2987 RMK A01 T03810181  RH  031%=      5-min Rain = 0
KRO1 202014Z 15011KT 38/18 A2987 RMK A01 T03820180  RH  031%=      5-min Rain = 0
KRO1 202015Z 16012G17KT 38/18 A2987 RMK A01 T03800179  RH  031%=      5-min Rain = 0
KRO1 202016Z 16016KT 38/18 A2987 RMK A01 T03800177  RH  031%=      5-min Rain = 0
KRO1 202017Z 16014KT 38/18 A2987 RMK A01 T03830176  RH  030%=      5-min Rain = 0
KRO1 202018Z 17012KT 38/18 A2987 RMK A01 T03830178  RH  030%=      5-min Rain = 0
KRO1 202019Z 15009KT 38/18 A2987 RMK A01 T03810176  RH  030%=      5-min Rain = 0
KRO1 202020Z 15010KT 38/18 A2987 RMK A01 T03800179  RH  031%=      5-min Rain = 0
KRO1 202021Z 17013KT 38/18 A2987 RMK A01 T03810181  RH  031%=      5-min Rain = 0
KRO1 202022Z 16011KT 38/18 A2987 RMK A01 T03810181  RH  031%=      5-min Rain = 0
KRO1 202023Z 16012KT 38/18 A2987 RMK A01 T03820182  RH  031%=      5-min Rain = 0
KRO1 202024Z 16015KT 39/18 A2987 RMK A01 T03850181  RH  030%=      5-min Rain = 0
KRO1 202025Z 18017KT 39/18 A2987 RMK A01 T03850179  RH  030%=      5-min Rain = 0
KRO1 202026Z 17013KT 38/18 A2987 RMK A01 T03840177  RH  030%=      5-min Rain = 0
KRO1 202027Z 18015KT 38/18 A2987 RMK A01 T03840175  RH  029%=      5-min Rain = 0
KRO1 202028Z 17014KT 38/17 A2987 RMK A01 T03840174  RH  029%=      5-min Rain = 0
KRO1 202029Z 17012KT 38/17 A2987 RMK A01 T03840173  RH  029%=      5-min Rain = 0
KRO1 202030Z 15013KT 39/17 A2987 RMK A01 T03870168  RH  028%=      5-min Rain = 0
KRO1 202031Z 16013KT 39/17 A2987 RMK A01 T03880166  RH  027%=      5-min Rain = 0
KRO1 202032Z 16014KT 39/17 A2987 RMK A01 T03900167  RH  027%=      5-min Rain = 0
KRO1 202033Z 16012KT 39/17 A2987 RMK A01 T03880172  RH  028%=      5-min Rain = 0
KRO1 202034Z 14010KT 39/17 A2987 RMK A01 T03860170  RH  028%=      5-min Rain = 0
KRO1 202035Z 16014KT 39/18 A2987 RMK A01 T03850178  RH  030%=      5-min Rain = 0
KRO1 202036Z 17014KT 38/18 A2987 RMK A01 T03840182  RH  031%=      5-min Rain = 0
KRO1 202037Z 18010KT 38/18 A2987 RMK A01 T03830180  RH  031%=      5-min Rain = 0
KRO1 202038Z 17010KT 38/18 A2987 RMK A01 T03810180  RH  031%=      5-min Rain = 0
KRO1 202039Z 16010KT 38/18 A2987 RMK A01 T03810177  RH  030%=      5-min Rain = 0
KRO1 202040Z 15012KT 38/18 A2987 RMK A01 T03830179  RH  030%=      5-min Rain = 0
KRO1 202041Z 16012KT 39/18 A2987 RMK A01 T03870182  RH  030%=      5-min Rain = 0
KRO1 202042Z 19016KT 39/17 A2987 RMK A01 T03880172  RH  028%=      5-min Rain = 0
KRO1 202043Z 19014KT 39/17 A2987 RMK A01 T03900170  RH  028%=      5-min Rain = 0
KRO1 202044Z 19011KT 39/17 A2987 RMK A01 T03910174  RH  028%=      5-min Rain = 0
KRO1 202045Z 19012KT 39/17 A2986 RMK A01 T03920174  RH  028%=      5-min Rain = 0
KRO1 202046Z 19012KT 39/17 A2986 RMK A01 T03910174  RH  028%=      5-min Rain = 0
KRO1 202047Z 18012KT 39/17 A2986 RMK A01 T03900173  RH  028%=      5-min Rain = 0
KRO1 202048Z 17017KT 39/17 A2986 RMK A01 T03900174  RH  028%=      5-min Rain = 0
KRO1 202049Z 17016KT 39/18 A2986 RMK A01 T03910176  RH  029%=      5-min Rain = 0
KRO1 202050Z 16014KT 39/18 A2986 RMK A01 T03910175  RH  029%=      5-min Rain = 0
KRO1 202051Z 15013KT 39/17 A2986 RMK A01 T03870174  RH  029%=      5-min Rain = 0
KRO1 202052Z 15016KT 39/18 A2986 RMK A01 T03850175  RH  029%=      5-min Rain = 0
KRO1 202053Z 16014KT 39/17 A2986 RMK A01 T03860173  RH  029%=      5-min Rain = 0
KRO1 202054Z 16013G18KT 39/17 A2986 RMK A01 T03850174  RH  029%=      5-min Rain = 0
KRO1 202055Z 16013KT 38/18 A2986 RMK A01 T03840175  RH  029%=      5-min Rain = 0
KRO1 202056Z 18014KT 38/17 A2986 RMK A01 T03840174  RH  029%=      5-min Rain = 0
KRO1 202057Z 19014KT 39/17 A2986 RMK A01 T03860173  RH  029%=      5-min Rain = 0
KRO1 202058Z 17016KT 39/18 A2986 RMK A01 T03890175  RH  029%=      5-min Rain = 0
KRO1 202059Z 18017KT 39/17 A2986 RMK A01 T03900174  RH  028%=      5-min Rain = 0
KRO1 202100Z 18014KT 39/17 A2986 RMK A01 T03880172  RH  028%=      5-min Rain = 0
KRO1 202101Z 18011KT 39/17 A2986 RMK A01 T03860172  RH  029%=      5-min Rain = 0
KRO1 202102Z 19013KT 39/17 A2986 RMK A01 T03860169  RH  028%=      5-min Rain = 0
KRO1 202103Z 16014G19KT 39/17 A2986 RMK A01 T03870168  RH  028%=      5-min Rain = 0
KRO1 202104Z 15009KT 39/17 A2986 RMK A01 T03860166  RH  028%=      5-min Rain = 0
KRO1 202105Z 16012KT 39/17 A2986 RMK A01 T03860168  RH  028%=      5-min Rain = 0
KRO1 202106Z 15011G16KT 39/17 A2986 RMK A01 T03870169  RH  028%=      5-min Rain = 0
KRO1 202107Z 15015KT 39/17 A2986 RMK A01 T03890173  RH  028%=      5-min Rain = 0
KRO1 202108Z 15014KT 39/17 A2986 RMK A01 T03900174  RH  028%=      5-min Rain = 0
KRO1 202109Z 16014KT 39/17 A2986 RMK A01 T03910172  RH  028%=      5-min Rain = 0
KRO1 202110Z 17015KT 39/17 A2986 RMK A01 T03900168  RH  027%=      5-min Rain = 0
KRO1 202111Z 17015KT 39/17 A2986 RMK A01 T03860165  RH  027%=      5-min Rain = 0
KRO1 202112Z 18014KT 39/17 A2985 RMK A01 T03850165  RH  028%=      5-min Rain = 0
KRO1 202113Z 17014KT 39/17 A2985 RMK A01 T03860166  RH  028%=      5-min Rain = 0
KRO1 202114Z 17007KT 39/17 A2985 RMK A01 T03860171  RH  029%=      5-min Rain = 0
KRO1 202115Z 17012G21KT 39/17 A2985 RMK A01 T03850174  RH  029%=      5-min Rain = 0
KRO1 202116Z 17019KT 39/18 A2985 RMK A01 T03880175  RH  029%=      5-min Rain = 0
KRO1 202117Z 18014G19KT 39/17 A2985 RMK A01 T03900174  RH  028%=      5-min Rain = 0
KRO1 202118Z 17017KT 39/18 A2985 RMK A01 T03910176  RH  029%=      5-min Rain = 0
KRO1 202119Z 16016KT 39/17 A2985 RMK A01 T03910173  RH  028%=      5-min Rain = 0
KRO1 202120Z 15015KT 39/17 A2985 RMK A01 T03910170  RH  027%=      5-min Rain = 0
KRO1 202121Z 17012KT 39/17 A2985 RMK A01 T03890168  RH  027%=      5-min Rain = 0
KRO1 202122Z 18012KT 39/17 A2985 RMK A01 T03880169  RH  028%=      5-min Rain = 0
KRO1 202123Z 17009KT 39/17 A2985 RMK A01 T03880171  RH  028%=      5-min Rain = 0
KRO1 202124Z 17011KT 39/18 A2985 RMK A01 T03880175  RH  029%=      5-min Rain = 0
KRO1 202125Z 15015KT 39/18 A2985 RMK A01 T03890180  RH  030%=      5-min Rain = 0
KRO1 202126Z 16021KT 39/18 A2985 RMK A01 T03930177  RH  028%=      5-min Rain = 0
KRO1 202127Z 16018G23KT 39/17 A2985 RMK A01 T03900172  RH  028%=      5-min Rain = 0
KRO1 202128Z 16016KT 39/17 A2985 RMK A01 T03880171  RH  028%=      5-min Rain = 0
KRO1 202129Z 17013KT 39/17 A2985 RMK A01 T03870170  RH  028%=      5-min Rain = 0
KRO1 202130Z 16012KT 39/17 A2985 RMK A01 T03860171  RH  029%=      5-min Rain = 0
KRO1 202131Z 16011KT 39/17 A2985 RMK A01 T03860173  RH  029%=      5-min Rain = 0
KRO1 202132Z 15014KT 39/18 A2985 RMK A01 T03880176  RH  029%=      5-min Rain = 0
KRO1 202133Z 16018KT 39/18 A2985 RMK A01 T03900175  RH  029%=      5-min Rain = 0
KRO1 202134Z 16016KT 39/18 A2985 RMK A01 T03880175  RH  029%=      5-min Rain = 0
KRO1 202135Z 15015KT 39/18 A2985 RMK A01 T03860175  RH  029%=      5-min Rain = 0
KRO1 202136Z 16011KT 38/17 A2985 RMK A01 T03840173  RH  029%=      5-min Rain = 0
KRO1 202137Z 16011KT 38/18 A2985 RMK A01 T03820175  RH  030%=      5-min Rain = 0
KRO1 202138Z 16014KT 39/18 A2985 RMK A01 T03860176  RH  030%=      5-min Rain = 0
KRO1 202139Z 17015KT 39/17 A2985 RMK A01 T03880172  RH  028%=      5-min Rain = 0
KRO1 202140Z 18011KT 39/17 A2985 RMK A01 T03880170  RH  028%=      5-min Rain = 0
KRO1 202141Z 17009KT 39/17 A2985 RMK A01 T03900170  RH  028%=      5-min Rain = 0
KRO1 202142Z 15014KT 39/17 A2985 RMK A01 T03910173  RH  028%=      5-min Rain = 0
KRO1 202143Z 17015KT 39/18 A2984 RMK A01 T03900176  RH  029%=      5-min Rain = 0
KRO1 202144Z 18017KT 39/18 A2984 RMK A01 T03900175  RH  029%=      5-min Rain = 0
KRO1 202145Z 15019KT 39/18 A2984 RMK A01 T03920175  RH  028%=      5-min Rain = 0
KRO1 202146Z 16017KT 39/17 A2984 RMK A01 T03920172  RH  028%=      5-min Rain = 0
KRO1 202147Z 16015KT 39/17 A2984 RMK A01 T03890173  RH  028%=      5-min Rain = 0
KRO1 202148Z 16014KT 39/17 A2984 RMK A01 T03890171  RH  028%=      5-min Rain = 0
KRO1 202149Z 17013KT 39/17 A2984 RMK A01 T03880171  RH  028%=      5-min Rain = 0
KRO1 202150Z 17011KT 39/17 A2984 RMK A01 T03870169  RH  028%=      5-min Rain = 0
KRO1 202151Z 17015KT 39/17 A2984 RMK A01 T03870169  RH  028%=      5-min Rain = 0
KRO1 202152Z 18017KT 39/17 A2984 RMK A01 T03890168  RH  028%=      5-min Rain = 0
KRO1 202153Z 18013KT 39/17 A2984 RMK A01 T03890168  RH  027%=      5-min Rain = 0
KRO1 202154Z 18014KT 39/17 A2984 RMK A01 T03890171  RH  028%=      5-min Rain = 0
KRO1 202155Z 18017KT 39/17 A2984 RMK A01 T03910172  RH  028%=      5-min Rain = 0
KRO1 202156Z 18017KT 39/17 A2984 RMK A01 T03920172  RH  028%=      5-min Rain = 0
KRO1 202157Z 18015KT 39/17 A2984 RMK A01 T03890169  RH  028%=      5-min Rain = 0
KRO1 202158Z 16015KT 39/17 A2984 RMK A01 T03870171  RH  028%=      5-min Rain = 0
KRO1 202159Z 15011KT 39/17 A2984 RMK A01 T03880169  RH  028%=      5-min Rain = 0
KRO1 202200Z 14013KT 39/17 A2984 RMK A01 T03890171  RH  028%=      5-min Rain = 0
KRO1 202201Z 15015KT 39/17 A2984 RMK A01 T03890170  RH  028%=      5-min Rain = 0
KRO1 202202Z 16013KT 39/17 A2984 RMK A01 T03890171  RH  028%=      5-min Rain = 0
KRO1 202203Z 14016KT 39/17 A2984 RMK A01 T03910173  RH  028%=      5-min Rain = 0
KRO1 202204Z 14011G16KT 39/17 A2984 RMK A01 T03910170  RH  027%=      5-min Rain = 0
KRO1 202205Z 14010KT 39/17 A2984 RMK A01 T03880171  RH  028%=      5-min Rain = 0
KRO1 202206Z 14014KT 39/17 A2984 RMK A01 T03890172  RH  028%=      5-min Rain = 0
KRO1 202207Z 16017KT 39/17 A2984 RMK A01 T03910170  RH  027%=      5-min Rain = 0
KRO1 202208Z 17016KT 39/17 A2984 RMK A01 T03900165  RH  027%=      5-min Rain = 0
KRO1 202209Z 18015KT 39/17 A2984 RMK A01 T03870167  RH  028%=      5-min Rain = 0
KRO1 202210Z 17015KT 39/17 A2984 RMK A01 T03880166  RH  027%=      5-min Rain = 0
KRO1 202211Z 17014KT 39/17 A2984 RMK A01 T03880167  RH  028%=      5-min Rain = 0
KRO1 202212Z 16014KT 39/17 A2984 RMK A01 T03860169  RH  028%=      5-min Rain = 0
KRO1 202213Z 14015KT 39/17 A2984 RMK A01 T03860171  RH  028%=      5-min Rain = 0
KRO1 202214Z 12014KT 39/17 A2984 RMK A01 T03870172  RH  028%=      5-min Rain = 0
KRO1 202215Z 13015KT 39/17 A2984 RMK A01 T03850172  RH  029%=      5-min Rain = 0
KRO1 202216Z 15016KT 38/17 A2984 RMK A01 T03840170  RH  029%=      5-min Rain = 0
KRO1 202217Z 15017KT 39/17 A2984 RMK A01 T03850166  RH  028%=      5-min Rain = 0
KRO1 202218Z 15016KT 39/16 A2984 RMK A01 T03850164  RH  027%=      5-min Rain = 0
KRO1 202219Z 16016KT 39/16 A2984 RMK A01 T03860164  RH  027%=      5-min Rain = 0
KRO1 202220Z 15014KT 39/16 A2984 RMK A01 T03870163  RH  027%=      5-min Rain = 0
KRO1 202221Z 14014KT 39/16 A2984 RMK A01 T03880162  RH  027%=      5-min Rain = 0
KRO1 202222Z 15011KT 39/16 A2984 RMK A01 T03880163  RH  027%=      5-min Rain = 0
KRO1 202223Z 17010KT 39/16 A2984 RMK A01 T03870162  RH  027%=      5-min Rain = 0
KRO1 202224Z 17011KT 39/17 A2984 RMK A01 T03870165  RH  027%=      5-min Rain = 0
KRO1 202225Z 17016KT 39/17 A2984 RMK A01 T03890171  RH  028%=      5-min Rain = 0
KRO1 202226Z 16017KT 39/17 A2984 RMK A01 T03910172  RH  028%=      5-min Rain = 0
KRO1 202227Z 15018KT 39/17 A2984 RMK A01 T03900172  RH  028%=      5-min Rain = 0
KRO1 202228Z 15017KT 39/17 A2984 RMK A01 T03890168  RH  027%=      5-min Rain = 0
KRO1 202229Z 14017KT 39/17 A2984 RMK A01 T03870168  RH  028%=      5-min Rain = 0
KRO1 202230Z 14018KT 39/17 A2984 RMK A01 T03860168  RH  028%=      5-min Rain = 0
KRO1 202231Z 15017KT 39/17 A2984 RMK A01 T03860167  RH  028%=      5-min Rain = 0
KRO1 202232Z 16017KT 39/17 A2984 RMK A01 T03860168  RH  028%=      5-min Rain = 0
KRO1 202233Z 16017KT 39/17 A2984 RMK A01 T03860169  RH  028%=      5-min Rain = 0
KRO1 202234Z 16016KT 39/17 A2984 RMK A01 T03850166  RH  028%=      5-min Rain = 0
KRO1 202235Z 16018KT 38/17 A2984 RMK A01 T03840170  RH  029%=      5-min Rain = 0
KRO1 202236Z 14017KT 38/17 A2984 RMK A01 T03840174  RH  029%=      5-min Rain = 0
KRO1 202237Z 14019KT 38/17 A2984 RMK A01 T03840172  RH  029%=      5-min Rain = 0
KRO1 202238Z 14014KT 38/17 A2984 RMK A01 T03830173  RH  029%=      5-min Rain = 0
KRO1 202239Z 15017KT 38/17 A2984 RMK A01 T03830173  RH  029%=      5-min Rain = 0
KRO1 202240Z 15019KT 39/17 A2984 RMK A01 T03850167  RH  028%=      5-min Rain = 0
KRO1 202241Z 14017KT 39/17 A2984 RMK A01 T03850168  RH  028%=      5-min Rain = 0
KRO1 202242Z 14016KT 39/17 A2984 RMK A01 T03860169  RH  028%=      5-min Rain = 0
KRO1 202243Z 15015KT 39/17 A2983 RMK A01 T03860171  RH  028%=      5-min Rain = 0
KRO1 202244Z 15018G23KT 39/17 A2983 RMK A01 T03850171  RH  029%=      5-min Rain = 0
KRO1 202245Z 17020KT 39/17 A2983 RMK A01 T03850165  RH  027%=      5-min Rain = 0
KRO1 202246Z 16021KT 39/17 A2983 RMK A01 T03850165  RH  028%=      5-min Rain = 0
KRO1 202247Z 16018KT 38/16 A2983 RMK A01 T03840163  RH  027%=      5-min Rain = 0
KRO1 202248Z 16017KT 38/16 A2983 RMK A01 T03820162  RH  027%=      5-min Rain = 0
KRO1 202249Z 16015KT 38/16 A2983 RMK A01 T03810163  RH  028%=      5-min Rain = 0
KRO1 202250Z 15014KT 38/16 A2983 RMK A01 T03810163  RH  028%=      5-min Rain = 0
KRO1 202251Z 14013KT 38/16 A2983 RMK A01 T03800162  RH  028%=      5-min Rain = 0
KRO1 202252Z 14014KT 38/16 A2983 RMK A01 T03810164  RH  028%=      5-min Rain = 0
KRO1 202253Z 15012KT 38/17 A2983 RMK A01 T03830168  RH  028%=      5-min Rain = 0
KRO1 202254Z 15014KT 39/17 A2983 RMK A01 T03860169  RH  028%=      5-min Rain = 0
KRO1 202255Z 14013KT 39/17 A2983 RMK A01 T03860169  RH  028%=      5-min Rain = 0
KRO1 202256Z 13014KT 39/17 A2983 RMK A01 T03860169  RH  028%=      5-min Rain = 0
KRO1 202257Z 15019G24KT 39/17 A2983 RMK A01 T03850167  RH  028%=      5-min Rain = 0
KRO1 202258Z 16016KT 39/16 A2983 RMK A01 T03850164  RH  027%=      5-min Rain = 0
KRO1 202259Z 16015KT 38/16 A2983 RMK A01 T03840164  RH  028%=      5-min Rain = 0
KRO1 202300Z 15016KT 38/17 A2983 RMK A01 T03840167  RH  028%=      5-min Rain = 0
KRO1 202301Z 16019KT 38/17 A2983 RMK A01 T03830166  RH  028%=      5-min Rain = 0
KRO1 202302Z 16016KT 38/16 A2983 RMK A01 T03820164  RH  028%=      5-min Rain = 0
KRO1 202303Z 16014G19KT 38/17 A2983 RMK A01 T03820165  RH  028%=      5-min Rain = 0
KRO1 202304Z 15016KT 38/17 A2983 RMK A01 T03820165  RH  028%=      5-min Rain = 0
KRO1 202305Z 15016KT 38/16 A2983 RMK A01 T03820164  RH  028%=      5-min Rain = 0
KRO1 202306Z 15018KT 38/17 A2983 RMK A01 T03820167  RH  028%=      5-min Rain = 0
KRO1 202307Z 15016KT 38/17 A2983 RMK A01 T03820166  RH  028%=      5-min Rain = 0
KRO1 202308Z 15017KT 38/17 A2983 RMK A01 T03830167  RH  028%=      5-min Rain = 0
KRO1 202309Z 15016KT 38/17 A2983 RMK A01 T03820168  RH  028%=      5-min Rain = 0
KRO1 202310Z 15016KT 38/17 A2983 RMK A01 T03820168  RH  028%=      5-min Rain = 0
KRO1 202311Z 14017KT 38/17 A2983 RMK A01 T03830168  RH  028%=      5-min Rain = 0
KRO1 202312Z 15016KT 38/17 A2983 RMK A01 T03830167  RH  028%=      5-min Rain = 0
KRO1 202313Z 14013G19KT 38/17 A2983 RMK A01 T03820170  RH  029%=      5-min Rain = 0
KRO1 202314Z 14019KT 38/17 A2983 RMK A01 T03830166  RH  028%=      5-min Rain = 0
KRO1 202315Z 15018KT 38/17 A2983 RMK A01 T03830167  RH  028%=      5-min Rain = 0
KRO1 202316Z 16016KT 38/17 A2983 RMK A01 T03820166  RH  028%=      5-min Rain = 0
KRO1 202317Z 17014KT 38/17 A2983 RMK A01 T03830166  RH  028%=      5-min Rain = 0
KRO1 202318Z 17017KT 38/17 A2983 RMK A01 T03830166  RH  028%=      5-min Rain = 0
KRO1 202319Z 16016KT 38/17 A2983 RMK A01 T03830166  RH  028%=      5-min Rain = 0
KRO1 202320Z 15014KT 38/17 A2983 RMK A01 T03830167  RH  028%=      5-min Rain = 0
KRO1 202321Z 15017KT 38/17 A2983 RMK A01 T03840166  RH  028%=      5-min Rain = 0
KRO1 202322Z 15014KT 38/16 A2983 RMK A01 T03830164  RH  028%=      5-min Rain = 0
KRO1 202323Z 15018KT 38/17 A2983 RMK A01 T03820165  RH  028%=      5-min Rain = 0
KRO1 202324Z 16016KT 38/16 A2983 RMK A01 T03800164  RH  028%=      5-min Rain = 0
KRO1 202325Z 16016G21KT 38/17 A2983 RMK A01 T03790166  RH  029%=      5-min Rain = 0
KRO1 202326Z 15015G20KT 38/17 A2983 RMK A01 T03780165  RH  029%=      5-min Rain = 0
KRO1 202327Z 15018KT 38/17 A2983 RMK A01 T03800166  RH  029%=      5-min Rain = 0
KRO1 202328Z 15021KT 38/16 A2983 RMK A01 T03800164  RH  028%=      5-min Rain = 0
KRO1 202329Z 15017KT 38/16 A2983 RMK A01 T03780164  RH  028%=      5-min Rain = 0
KRO1 202330Z 14019KT 38/16 A2983 RMK A01 T03780164  RH  028%=      5-min Rain = 0
KRO1 202331Z 15019KT 38/16 A2983 RMK A01 T03780163  RH  028%=      5-min Rain = 0
KRO1 202332Z 15019KT 38/16 A2983 RMK A01 T03780162  RH  028%=      5-min Rain = 0
KRO1 202333Z 14016KT 38/16 A2983 RMK A01 T03780162  RH  028%=      5-min Rain = 0
KRO1 202334Z 14018G23KT 38/16 A2982 RMK A01 T03780162  RH  028%=      5-min Rain = 0
KRO1 202335Z 15020G25KT 38/16 A2982 RMK A01 T03780162  RH  028%=      5-min Rain = 0
KRO1 202336Z 17019KT 38/16 A2983 RMK A01 T03780162  RH  028%=      5-min Rain = 0
KRO1 202337Z 16016KT 38/16 A2983 RMK A01 T03780162  RH  028%=      5-min Rain = 0
KRO1 202338Z 17016KT 38/16 A2983 RMK A01 T03780162  RH  028%=      5-min Rain = 0
KRO1 202339Z 16014KT 38/16 A2983 RMK A01 T03780162  RH  028%=      5-min Rain = 0
KRO1 202340Z 15018KT 38/16 A2983 RMK A01 T03780162  RH  028%=      5-min Rain = 0
KRO1 202341Z 15017KT 38/16 A2983 RMK A01 T03780162  RH  028%=      5-min Rain = 0
KRO1 202342Z 15015KT 38/16 A2983 RMK A01 T03770162  RH  028%=      5-min Rain = 0
KRO1 202343Z 14013KT 38/16 A2983 RMK A01 T03760164  RH  029%=      5-min Rain = 0
KRO1 202344Z 15017KT 38/16 A2983 RMK A01 T03780164  RH  028%=      5-min Rain = 0
KRO1 202345Z 14017KT 38/16 A2983 RMK A01 T03770162  RH  028%=      5-min Rain = 0
KRO1 202346Z 14017KT 38/16 A2983 RMK A01 T03750161  RH  028%=      5-min Rain = 0
KRO1 202347Z 15017KT 37/16 A2983 RMK A01 T03740160  RH  028%=      5-min Rain = 0
KRO1 202348Z 15014KT 37/16 A2983 RMK A01 T03740161  RH  029%=      5-min Rain = 0
KRO1 202349Z 15019KT 37/16 A2983 RMK A01 T03740161  RH  028%=      5-min Rain = 0
KRO1 202350Z 15016KT 38/16 A2983 RMK A01 T03750158  RH  028%=      5-min Rain = 0
KRO1 202351Z 14017KT 37/16 A2983 RMK A01 T03740160  RH  028%=      5-min Rain = 0
KRO1 202352Z 15017KT 37/16 A2983 RMK A01 T03740161  RH  028%=      5-min Rain = 0
KRO1 202353Z 15016KT 37/16 A2983 RMK A01 T03740161  RH  028%=      5-min Rain = 0
KRO1 202354Z 14018KT 37/16 A2982 RMK A01 T03740162  RH  029%=      5-min Rain = 0
KRO1 202355Z 15016KT 37/16 A2982 RMK A01 T03740161  RH  028%=      5-min Rain = 0
KRO1 202356Z 15017KT 37/16 A2982 RMK A01 T03740163  RH  029%=      5-min Rain = 0
KRO1 202357Z 15019KT 37/16 A2982 RMK A01 T03740161  RH  029%=      5-min Rain = 0
KRO1 202358Z 15018KT 37/16 A2982 RMK A01 T03740160  RH  028%=      5-min Rain = 0
KRO1 202359Z 14018KT 37/16 A2982 RMK A01 T03730161  RH  029%=      5-min Rain = 0
KRO1 210000Z 15018KT 37/16 A2982 RMK A01 T03730160  RH  029%=      5-min Rain = 0
KRO1 210001Z 15019KT 37/16 A2982 RMK A01 T03730159  RH  028%=      5-min Rain = 0
KRO1 210002Z 15018KT 37/16 A2982 RMK A01 T03720160  RH  028%=      5-min Rain = 0
KRO1 210003Z 14016KT 37/16 A2982 RMK A01 T03720161  RH  029%=      5-min Rain = 0
KRO1 210004Z 14017G22KT 37/16 A2982 RMK A01 T03720162  RH  029%=      5-min Rain = 0
KRO1 210005Z 14017KT 37/16 A2982 RMK A01 T03730160  RH  029%=      5-min Rain = 0
KRO1 210006Z 14019KT 37/16 A2982 RMK A01 T03720160  RH  029%=      5-min Rain = 0
KRO1 210007Z 14018KT 37/16 A2982 RMK A01 T03710159  RH  029%=      5-min Rain = 0
KRO1 210008Z 15017KT 37/16 A2982 RMK A01 T03710160  RH  029%=      5-min Rain = 0
KRO1 210009Z 15018KT 37/16 A2982 RMK A01 T03710160  RH  029%=      5-min Rain = 0
KRO1 210010Z 15017G22KT 37/16 A2982 RMK A01 T03710160  RH  029%=      5-min Rain = 0
KRO1 210011Z 16018KT 37/16 A2982 RMK A01 T03710156  RH  028%=      5-min Rain = 0
KRO1 210012Z 15018G23KT 37/16 A2982 RMK A01 T03710158  RH  028%=      5-min Rain = 0
KRO1 210013Z 15016KT 37/16 A2982 RMK A01 T03710156  RH  028%=      5-min Rain = 0
KRO1 210014Z 15018KT 37/16 A2982 RMK A01 T03710157  RH  028%=      5-min Rain = 0
KRO1 210015Z 15015KT 37/16 A2982 RMK A01 T03710158  RH  028%=      5-min Rain = 0
KRO1 210016Z 14015G21KT 37/16 A2982 RMK A01 T03710159  RH  029%=      5-min Rain = 0
KRO1 210017Z 14019KT 37/16 A2982 RMK A01 T03710155  RH  028%=      5-min Rain = 0
KRO1 210018Z 15016KT 37/16 A2982 RMK A01 T03700155  RH  028%=      5-min Rain = 0
KRO1 210019Z 15019KT 37/16 A2982 RMK A01 T03700155  RH  028%=      5-min Rain = 0
KRO1 210020Z 15017KT 37/15 A2982 RMK A01 T03700153  RH  028%=      5-min Rain = 0
KRO1 210021Z 14015KT 37/15 A2982 RMK A01 T03700154  RH  028%=      5-min Rain = 0
KRO1 210022Z 14015KT 37/16 A2982 RMK A01 T03700155  RH  028%=      5-min Rain = 0
KRO1 210023Z 15017KT 37/15 A2982 RMK A01 T03700154  RH  028%=      5-min Rain = 0
KRO1 210024Z 15017KT 37/16 A2982 RMK A01 T03690155  RH  028%=      5-min Rain = 0
KRO1 210025Z 14016KT 37/15 A2982 RMK A01 T03690154  RH  028%=      5-min Rain = 0
KRO1 210026Z 15017KT 37/15 A2982 RMK A01 T03690154  RH  028%=      5-min Rain = 0
KRO1 210027Z 14015KT 37/15 A2982 RMK A01 T03680154  RH  028%=      5-min Rain = 0
KRO1 210028Z 15015KT 37/16 A2982 RMK A01 T03680155  RH  028%=      5-min Rain = 0
KRO1 210029Z 15017G25KT 37/16 A2982 RMK A01 T03680155  RH  028%=      5-min Rain = 0
KRO1 210030Z 15020KT 37/15 A2982 RMK A01 T03680153  RH  028%=      5-min Rain = 0
KRO1 210031Z 15019KT 37/15 A2982 RMK A01 T03670152  RH  028%=      5-min Rain = 0
KRO1 210032Z 15019KT 37/15 A2982 RMK A01 T03660152  RH  028%=      5-min Rain = 0
KRO1 210033Z 14020KT 37/15 A2982 RMK A01 T03660151  RH  028%=      5-min Rain = 0
KRO1 210034Z 15017KT 37/15 A2982 RMK A01 T03650152  RH  028%=      5-min Rain = 0
KRO1 210035Z 15019KT 37/15 A2982 RMK A01 T03650152  RH  028%=      5-min Rain = 0
KRO1 210036Z 15017KT 37/15 A2982 RMK A01 T03650152  RH  028%=      5-min Rain = 0
KRO1 210037Z 15016KT 37/15 A2982 RMK A01 T03650153  RH  028%=      5-min Rain = 0
KRO1 210038Z 15015KT 37/15 A2982 RMK A01 T03650153  RH  028%=      5-min Rain = 0
KRO1 210039Z 14016KT 37/15 A2982 RMK A01 T03650152  RH  028%=      5-min Rain = 0
KRO1 210040Z 15018KT 36/15 A2982 RMK A01 T03640151  RH  028%=      5-min Rain = 0
KRO1 210041Z 14015KT 36/15 A2982 RMK A01 T03640152  RH  028%=      5-min Rain = 0
KRO1 210042Z 14016KT 36/15 A2982 RMK A01 T03640153  RH  029%=      5-min Rain = 0
KRO1 210043Z 15015KT 36/15 A2983 RMK A01 T03640153  RH  029%=      5-min Rain = 0
KRO1 210044Z 14016KT 36/15 A2983 RMK A01 T03630152  RH  029%=      5-min Rain = 0
KRO1 210045Z 14017KT 36/15 A2983 RMK A01 T03630151  RH  028%=      5-min Rain = 0
KRO1 210046Z 15017KT 36/15 A2983 RMK A01 T03620151  RH  028%=      5-min Rain = 0
KRO1 210047Z 15018KT 36/15 A2983 RMK A01 T03620150  RH  028%=      5-min Rain = 0
KRO1 210048Z 15017KT 36/15 A2983 RMK A01 T03620149  RH  028%=      5-min Rain = 0
KRO1 210049Z 14014KT 36/15 A2983 RMK A01 T03620150  RH  028%=      5-min Rain = 0
KRO1 210050Z 14016KT 36/15 A2983 RMK A01 T03610151  RH  029%=      5-min Rain = 0
KRO1 210051Z 15021KT 36/15 A2983 RMK A01 T03610147  RH  028%=      5-min Rain = 0
KRO1 210052Z 14016KT 36/15 A2983 RMK A01 T03610147  RH  028%=      5-min Rain = 0
KRO1 210053Z 15015KT 36/15 A2983 RMK A01 T03610149  RH  028%=      5-min Rain = 0
KRO1 210054Z 15017KT 36/15 A2983 RMK A01 T03600148  RH  028%=      5-min Rain = 0
KRO1 210055Z 15016KT 36/15 A2983 RMK A01 T03600148  RH  028%=      5-min Rain = 0
KRO1 210056Z 15016KT 36/15 A2983 RMK A01 T03600147  RH  028%=      5-min Rain = 0
KRO1 210057Z 15016KT 36/15 A2983 RMK A01 T03600147  RH  028%=      5-min Rain = 0
KRO1 210058Z 15016KT 36/15 A2983 RMK A01 T03590147  RH  028%=      5-min Rain = 0
KRO1 210059Z 15014KT 36/15 A2983 RMK A01 T03590146  RH  028%=      5-min Rain = 0
KRO1 210100Z 14012KT 36/15 A2983 RMK A01 T03580146  RH  028%=      5-min Rain = 0
KRO1 210101Z 14015KT 36/15 A2983 RMK A01 T03580147  RH  028%=      5-min Rain = 0
KRO1 210102Z 14015KT 36/15 A2983 RMK A01 T03580146  RH  028%=      5-min Rain = 0
KRO1 210103Z 14017KT 36/14 A2983 RMK A01 T03570144  RH  028%=      5-min Rain = 0
KRO1 210104Z 14016KT 36/14 A2983 RMK A01 T03570143  RH  028%=      5-min Rain = 0
KRO1 210105Z 14017KT 36/14 A2983 RMK A01 T03570143  RH  028%=      5-min Rain = 0
KRO1 210106Z 14015KT 36/14 A2983 RMK A01 T03570142  RH  028%=      5-min Rain = 0
KRO1 210107Z 14016KT 36/14 A2983 RMK A01 T03570142  RH  028%=      5-min Rain = 0
KRO1 210108Z 14016KT 36/14 A2983 RMK A01 T03560142  RH  028%=      5-min Rain = 0
KRO1 210109Z 14016KT 36/14 A2983 RMK A01 T03560142  RH  028%=      5-min Rain = 0
KRO1 210110Z 15017KT 36/14 A2983 RMK A01 T03560142  RH  028%=      5-min Rain = 0
KRO1 210111Z 15016KT 36/14 A2983 RMK A01 T03560141  RH  028%=      5-min Rain = 0
KRO1 210112Z 15015KT 36/14 A2983 RMK A01 T03550142  RH  028%=      5-min Rain = 0
KRO1 210113Z 15014G20KT 36/14 A2983 RMK A01 T03550143  RH  028%=      5-min Rain = 0
KRO1 210114Z 15014KT 35/14 A2983 RMK A01 T03540143  RH  028%=      5-min Rain = 0
KRO1 210115Z 15015KT 35/14 A2983 RMK A01 T03540143  RH  028%=      5-min Rain = 0
KRO1 210116Z 14013KT 35/14 A2983 RMK A01 T03530143  RH  028%=      5-min Rain = 0
KRO1 210117Z 15015KT 35/14 A2983 RMK A01 T03530142  RH  028%=      5-min Rain = 0
KRO1 210118Z 15016KT 35/14 A2983 RMK A01 T03520141  RH  028%=      5-min Rain = 0
KRO1 210119Z 15017KT 35/14 A2983 RMK A01 T03520139  RH  028%=      5-min Rain = 0
KRO1 210120Z 15017KT 35/14 A2983 RMK A01 T03520139  RH  028%=      5-min Rain = 0
KRO1 210121Z 15017KT 35/14 A2983 RMK A01 T03520138  RH  028%=      5-min Rain = 0
KRO1 210122Z 15016KT 35/14 A2983 RMK A01 T03520138  RH  028%=      5-min Rain = 0
KRO1 210123Z 15015KT 35/14 A2983 RMK A01 T03520138  RH  028%=      5-min Rain = 0
KRO1 210124Z 15015KT 35/14 A2983 RMK A01 T03520138  RH  028%=      5-min Rain = 0
KRO1 210125Z 15014KT 35/14 A2983 RMK A01 T03510139  RH  028%=      5-min Rain = 0
KRO1 210126Z 15014KT 35/14 A2983 RMK A01 T03500139  RH  028%=      5-min Rain = 0
KRO1 210127Z 15013KT 35/14 A2983 RMK A01 T03500138  RH  028%=      5-min Rain = 0
KRO1 210128Z 15012KT 35/14 A2983 RMK A01 T03490138  RH  028%=      5-min Rain = 0
KRO1 210129Z 15015KT 35/14 A2983 RMK A01 T03480138  RH  028%=      5-min Rain = 0
KRO1 210130Z 15013KT 35/14 A2983 RMK A01 T03480138  RH  028%=      5-min Rain = 0
KRO1 210131Z 15014KT 35/14 A2983 RMK A01 T03480138  RH  028%=      5-min Rain = 0
KRO1 210132Z 15013KT 35/14 A2983 RMK A01 T03470138  RH  028%=      5-min Rain = 0
KRO1 210133Z 15013KT 35/14 A2983 RMK A01 T03470138  RH  028%=      5-min Rain = 0
KRO1 210134Z 15014KT 35/14 A2983 RMK A01 T03470138  RH  028%=      5-min Rain = 0
KRO1 210135Z 15014KT 35/14 A2983 RMK A01 T03470138  RH  028%=      5-min Rain = 0
KRO1 210136Z 15013KT 35/14 A2983 RMK A01 T03470137  RH  028%=      5-min Rain = 0
KRO1 210137Z 14014KT 35/14 A2983 RMK A01 T03460137  RH  028%=      5-min Rain = 0
KRO1 210138Z 15014KT 35/14 A2983 RMK A01 T03460137  RH  028%=      5-min Rain = 0
KRO1 210139Z 14012KT 35/14 A2984 RMK A01 T03460137  RH  029%=      5-min Rain = 0
KRO1 210140Z 15013KT 35/14 A2984 RMK A01 T03450137  RH  029%=      5-min Rain = 0
KRO1 210141Z 15012KT 34/14 A2984 RMK A01 T03440137  RH  029%=      5-min Rain = 0
KRO1 210142Z 15013KT 34/14 A2984 RMK A01 T03440137  RH  029%=      5-min Rain = 0
KRO1 210143Z 14012KT 34/14 A2984 RMK A01 T03440137  RH  029%=      5-min Rain = 0
KRO1 210144Z 15015KT 34/14 A2984 RMK A01 T03430137  RH  029%=      5-min Rain = 0
KRO1 210145Z 15014KT 34/14 A2984 RMK A01 T03430136  RH  029%=      5-min Rain = 0
KRO1 210146Z 15013KT 34/14 A2984 RMK A01 T03430136  RH  029%=      5-min Rain = 0
KRO1 210147Z 15013KT 34/14 A2984 RMK A01 T03430137  RH  029%=      5-min Rain = 0
KRO1 210148Z 15014KT 34/14 A2984 RMK A01 T03420137  RH  029%=      5-min Rain = 0
KRO1 210149Z 15012KT 34/14 A2984 RMK A01 T03410137  RH  029%=      5-min Rain = 0
KRO1 210150Z 14012KT 34/14 A2984 RMK A01 T03400137  RH  029%=      5-min Rain = 0
KRO1 210151Z 15012KT 34/14 A2984 RMK A01 T03400137  RH  030%=      5-min Rain = 0
KRO1 210152Z 15011KT 34/14 A2984 RMK A01 T03390138  RH  030%=      5-min Rain = 0
KRO1 210153Z 15011KT 34/14 A2984 RMK A01 T03380138  RH  030%=      5-min Rain = 0
KRO1 210154Z 15011KT 34/14 A2984 RMK A01 T03380138  RH  030%=      5-min Rain = 0
KRO1 210155Z 14010KT 34/14 A2984 RMK A01 T03370139  RH  030%=      5-min Rain = 0
KRO1 210156Z 14010KT 34/14 A2984 RMK A01 T03360139  RH  030%=      5-min Rain = 0
KRO1 210157Z 15011KT 34/14 A2984 RMK A01 T03360139  RH  030%=      5-min Rain = 0
KRO1 210158Z 15011KT 34/14 A2984 RMK A01 T03350139  RH  031%=      5-min Rain = 0
KRO1 210159Z 15011KT 34/14 A2984 RMK A01 T03350139  RH  031%=      5-min Rain = 0
KRO1 210200Z 15011KT 34/14 A2984 RMK A01 T03350139  RH  031%=      5-min Rain = 0
KRO1 210201Z 15011KT 34/14 A2984 RMK A01 T03350139  RH  031%=      5-min Rain = 0
KRO1 210202Z 15011KT 34/14 A2984 RMK A01 T03350139  RH  031%=      5-min Rain = 0
KRO1 210203Z 15011KT 33/14 A2984 RMK A01 T03340140  RH  031%=      5-min Rain = 0
KRO1 210204Z 15010KT 34/14 A2984 RMK A01 T03350140  RH  031%=      5-min Rain = 0
KRO1 210205Z 15011KT 33/14 A2984 RMK A01 T03330140  RH  031%=      5-min Rain = 0
KRO1 210206Z 15011KT 33/14 A2984 RMK A01 T03330140  RH  031%=      5-min Rain = 0
KRO1 210207Z 14011KT 33/14 A2984 RMK A01 T03330140  RH  031%=      5-min Rain = 0
KRO1 210208Z 15011KT 33/14 A2984 RMK A01 T03330140  RH  031%=      5-min Rain = 0
KRO1 210209Z 15010KT 33/14 A2984 RMK A01 T03330141  RH  031%=      5-min Rain = 0
KRO1 210210Z 15010KT 33/14 A2984 RMK A01 T03320141  RH  032%=      5-min Rain = 0
KRO1 210211Z 15011KT 33/14 A2984 RMK A01 T03310141  RH  032%=      5-min Rain = 0
KRO1 210212Z 15010KT 33/14 A2984 RMK A01 T03310141  RH  032%=      5-min Rain = 0
KRO1 210213Z 15010KT 33/14 A2984 RMK A01 T03300141  RH  032%=      5-min Rain = 0
KRO1 210214Z 15010KT 33/14 A2984 RMK A01 T03300141  RH  032%=      5-min Rain = 0
KRO1 210215Z 15011KT 33/14 A2984 RMK A01 T03290142  RH  032%=      5-min Rain = 0
KRO1 210216Z 15010KT 33/14 A2984 RMK A01 T03290142  RH  032%=      5-min Rain = 0
KRO1 210217Z 15010KT 33/14 A2984 RMK A01 T03290142  RH  032%=      5-min Rain = 0
KRO1 210218Z 15010KT 33/14 A2984 RMK A01 T03280142  RH  033%=      5-min Rain = 0
KRO1 210219Z 15011KT 33/14 A2984 RMK A01 T03270142  RH  033%=      5-min Rain = 0
KRO1 210220Z 15010KT 33/14 A2984 RMK A01 T03270142  RH  033%=      5-min Rain = 0
KRO1 210221Z 14009KT 33/14 A2984 RMK A01 T03270142  RH  033%=      5-min Rain = 0
KRO1 210222Z 14010KT 33/14 A2984 RMK A01 T03270143  RH  033%=      5-min Rain = 0
KRO1 210223Z 14009KT 33/14 A2984 RMK A01 T03260143  RH  033%=      5-min Rain = 0
KRO1 210224Z 14010KT 33/14 A2984 RMK A01 T03250144  RH  033%=      5-min Rain = 0
KRO1 210225Z 14011KT 33/14 A2985 RMK A01 T03250144  RH  034%=      5-min Rain = 0
KRO1 210226Z 14011KT 33/14 A2985 RMK A01 T03250144  RH  034%=      5-min Rain = 0
KRO1 210227Z 14011KT 33/15 A2985 RMK A01 T03250145  RH  034%=      5-min Rain = 0
KRO1 210228Z 14011KT 33/15 A2985 RMK A01 T03250145  RH  034%=      5-min Rain = 0
KRO1 210229Z 14011KT 33/15 A2985 RMK A01 T03250145  RH  034%=      5-min Rain = 0
KRO1 210230Z 14012KT 33/15 A2985 RMK A01 T03250146  RH  034%=      5-min Rain = 0
KRO1 210231Z 14012KT 33/15 A2985 RMK A01 T03250145  RH  034%=      5-min Rain = 0
KRO1 210232Z 14011KT 33/15 A2985 RMK A01 T03250146  RH  034%=      5-min Rain = 0
KRO1 210233Z 14012KT 32/15 A2985 RMK A01 T03240146  RH  034%=      5-min Rain = 0
KRO1 210234Z 14013KT 32/15 A2985 RMK A01 T03240145  RH  034%=      5-min Rain = 0
KRO1 210235Z 14012KT 33/15 A2985 RMK A01 T03250146  RH  034%=      5-min Rain = 0
KRO1 210236Z 14011KT 33/15 A2985 RMK A01 T03260146  RH  034%=      5-min Rain = 0
KRO1 210237Z 14013KT 33/15 A2985 RMK A01 T03250146  RH  034%=      5-min Rain = 0
KRO1 210238Z 14013KT 33/15 A2985 RMK A01 T03250146  RH  034%=      5-min Rain = 0
KRO1 210239Z 14012KT 33/15 A2985 RMK A01 T03250145  RH  034%=      5-min Rain = 0
KRO1 210240Z 14012KT 33/15 A2985 RMK A01 T03250146  RH  034%=      5-min Rain = 0
KRO1 210241Z 14013KT 33/15 A2985 RMK A01 T03250146  RH  034%=      5-min Rain = 0
KRO1 210242Z 14012KT 33/15 A2985 RMK A01 T03250146  RH  034%=      5-min Rain = 0
KRO1 210243Z 14011KT 33/15 A2985 RMK A01 T03250146  RH  034%=      5-min Rain = 0
KRO1 210244Z 14011KT 32/15 A2985 RMK A01 T03240146  RH  034%=      5-min Rain = 0
KRO1 210245Z 14011KT 32/15 A2985 RMK A01 T03230147  RH  034%=      5-min Rain = 0
KRO1 210246Z 14010KT 32/15 A2985 RMK A01 T03210146  RH  035%=      5-min Rain = 0
KRO1 210247Z 14010KT 32/15 A2985 RMK A01 T03210147  RH  035%=      5-min Rain = 0
KRO1 210248Z 14010KT 32/15 A2985 RMK A01 T03200147  RH  035%=      5-min Rain = 0
KRO1 210249Z 14010KT 32/15 A2985 RMK A01 T03190147  RH  035%=      5-min Rain = 0
KRO1 210250Z 14011KT 32/15 A2985 RMK A01 T03190147  RH  035%=      5-min Rain = 0
KRO1 210251Z 14012KT 32/15 A2985 RMK A01 T03190147  RH  035%=      5-min Rain = 0
KRO1 210252Z 14012KT 32/15 A2985 RMK A01 T03180146  RH  035%=      5-min Rain = 0
KRO1 210253Z 14013KT 32/15 A2986 RMK A01 T03190147  RH  035%=      5-min Rain = 0
KRO1 210254Z 14012KT 32/15 A2986 RMK A01 T03190147  RH  035%=      5-min Rain = 0
KRO1 210255Z 14012KT 32/15 A2986 RMK A01 T03190147  RH  035%=      5-min Rain = 0
KRO1 210256Z 14013KT 32/15 A2986 RMK A01 T03190147  RH  035%=      5-min Rain = 0
KRO1 210257Z 14011KT 32/15 A2986 RMK A01 T03190147  RH  035%=      5-min Rain = 0
KRO1 210258Z 14012KT 32/15 A2986 RMK A01 T03190147  RH  035%=      5-min Rain = 0
KRO1 210259Z 14012KT 32/15 A2986 RMK A01 T03190147  RH  035%=      5-min Rain = 0
KRO1 210300Z 14013KT 32/15 A2986 RMK A01 T03190147  RH  035%=      5-min Rain = 0
KRO1 210301Z 14011KT 32/15 A2986 RMK A01 T03190146  RH  035%=      5-min Rain = 0
KRO1 210302Z 14012KT 32/15 A2986 RMK A01 T03190147  RH  035%=      5-min Rain = 0
KRO1 210303Z 14012KT 32/15 A2986 RMK A01 T03180146  RH  035%=      5-min Rain = 0
KRO1 210304Z 14012KT 32/15 A2986 RMK A01 T03180147  RH  035%=      5-min Rain = 0
KRO1 210305Z 14012KT 32/15 A2986 RMK A01 T03180147  RH  035%=      5-min Rain = 0
KRO1 210306Z 14012KT 32/15 A2986 RMK A01 T03180147  RH  036%=      5-min Rain = 0
KRO1 210307Z 14013KT 32/15 A2986 RMK A01 T03170146  RH  036%=      5-min Rain = 0
KRO1 210308Z 14012KT 32/15 A2986 RMK A01 T03180147  RH  036%=      5-min Rain = 0
KRO1 210309Z 14012KT 32/15 A2986 RMK A01 T03170147  RH  036%=      5-min Rain = 0
KRO1 210310Z 14011KT 32/15 A2986 RMK A01 T03170147  RH  036%=      5-min Rain = 0
KRO1 210311Z 14012KT 32/15 A2986 RMK A01 T03160147  RH  036%=      5-min Rain = 0
KRO1 210312Z 14011KT 32/15 A2986 RMK A01 T03150147  RH  036%=      5-min Rain = 0
KRO1 210313Z 14011KT 32/15 A2986 RMK A01 T03150147  RH  036%=      5-min Rain = 0
KRO1 210314Z 14012KT 31/15 A2986 RMK A01 T03140147  RH  036%=      5-min Rain = 0
KRO1 210315Z 14012KT 31/15 A2986 RMK A01 T03140147  RH  036%=      5-min Rain = 0
KRO1 210316Z 14011KT 31/15 A2987 RMK A01 T03140147  RH  036%=      5-min Rain = 0
KRO1 210317Z 14011KT 31/15 A2987 RMK A01 T03140147  RH  036%=      5-min Rain = 0
KRO1 210318Z 14011KT 31/15 A2987 RMK A01 T03130147  RH  037%=      5-min Rain = 0
KRO1 210319Z 14011KT 31/15 A2987 RMK A01 T03120147  RH  037%=      5-min Rain = 0
KRO1 210320Z 14011KT 31/15 A2987 RMK A01 T03120147  RH  037%=      5-min Rain = 0
KRO1 210321Z 14011KT 31/15 A2987 RMK A01 T03120147  RH  037%=      5-min Rain = 0
KRO1 210322Z 14010KT 31/15 A2987 RMK A01 T03110147  RH  037%=      5-min Rain = 0
KRO1 210323Z 14010KT 31/15 A2987 RMK A01 T03100147  RH  037%=      5-min Rain = 0
KRO1 210324Z 14011KT 31/15 A2987 RMK A01 T03090147  RH  037%=      5-min Rain = 0
KRO1 210325Z 14011KT 31/15 A2987 RMK A01 T03090147  RH  037%=      5-min Rain = 0
KRO1 210326Z 14011KT 31/15 A2987 RMK A01 T03090146  RH  037%=      5-min Rain = 0
KRO1 210327Z 14010KT 31/15 A2987 RMK A01 T03100147  RH  037%=      5-min Rain = 0
KRO1 210328Z 14010KT 31/15 A2987 RMK A01 T03090147  RH  037%=      5-min Rain = 0
KRO1 210329Z 14010KT 31/15 A2987 RMK A01 T03080147  RH  038%=      5-min Rain = 0
KRO1 210330Z 14011KT 31/15 A2987 RMK A01 T03080147  RH  038%=      5-min Rain = 0
KRO1 210331Z 14011KT 31/15 A2987 RMK A01 T03080147  RH  038%=      5-min Rain = 0
KRO1 210332Z 14010KT 31/15 A2987 RMK A01 T03080147  RH  038%=      5-min Rain = 0
KRO1 210333Z 14011KT 31/15 A2987 RMK A01 T03080147  RH  038%=      5-min Rain = 0
KRO1 210334Z 14010KT 31/15 A2987 RMK A01 T03070147  RH  038%=      5-min Rain = 0
KRO1 210335Z 14010KT 31/15 A2987 RMK A01 T03070148  RH  038%=      5-min Rain = 0
KRO1 210336Z 14011KT 31/15 A2987 RMK A01 T03060148  RH  038%=      5-min Rain = 0
KRO1 210337Z 14011KT 31/15 A2987 RMK A01 T03060147  RH  038%=      5-min Rain = 0
KRO1 210338Z 14011KT 31/15 A2988 RMK A01 T03060147  RH  038%=      5-min Rain = 0
KRO1 210339Z 14010KT 31/15 A2988 RMK A01 T03060148  RH  038%=      5-min Rain = 0
KRO1 210340Z 14010KT 31/15 A2987 RMK A01 T03050148  RH  039%=      5-min Rain = 0
KRO1 210341Z 14011KT 31/15 A2987 RMK A01 T03050148  RH  039%=      5-min Rain = 0
KRO1 210342Z 14011KT 30/15 A2987 RMK A01 T03040148  RH  039%=      5-min Rain = 0
KRO1 210343Z 14012KT 30/15 A2987 RMK A01 T03040148  RH  039%=      5-min Rain = 0
KRO1 210344Z 14011KT 30/15 A2987 RMK A01 T03040148  RH  039%=      5-min Rain = 0
KRO1 210345Z 14011KT 30/15 A2987 RMK A01 T03040148  RH  039%=      5-min Rain = 0
KRO1 210346Z 14012KT 30/15 A2987 RMK A01 T03030148  RH  039%=      5-min Rain = 0
KRO1 210347Z 14011KT 30/15 A2987 RMK A01 T03030148  RH  039%=      5-min Rain = 0
KRO1 210348Z 14011KT 30/15 A2987 RMK A01 T03030148  RH  039%=      5-min Rain = 0
KRO1 210349Z 14011KT 30/15 A2987 RMK A01 T03020148  RH  039%=      5-min Rain = 0
KRO1 210350Z 14011KT 30/15 A2987 RMK A01 T03020148  RH  039%=      5-min Rain = 0
KRO1 210351Z 14011KT 30/15 A2987 RMK A01 T03020147  RH  039%=      5-min Rain = 0
KRO1 210352Z 14010KT 30/15 A2987 RMK A01 T03020148  RH  039%=      5-min Rain = 0
KRO1 210353Z 14011KT 30/15 A2987 RMK A01 T03010148  RH  039%=      5-min Rain = 0
KRO1 210354Z 14011KT 30/15 A2987 RMK A01 T03010147  RH  039%=      5-min Rain = 0
KRO1 210355Z 14012KT 30/15 A2987 RMK A01 T03010147  RH  039%=      5-min Rain = 0
KRO1 210356Z 14011KT 30/15 A2988 RMK A01 T03000146  RH  039%=      5-min Rain = 0
KRO1 210357Z 14011KT 30/15 A2988 RMK A01 T03010147  RH  039%=      5-min Rain = 0
KRO1 210358Z 15012KT 30/15 A2988 RMK A01 T03010146  RH  039%=      5-min Rain = 0
KRO1 210359Z 14012KT 30/15 A2988 RMK A01 T03010146  RH  039%=      5-min Rain = 0
KRO1 210400Z 15011KT 30/15 A2988 RMK A01 T03010145  RH  039%=      5-min Rain = 0
KRO1 210401Z 15011KT 30/15 A2988 RMK A01 T03020146  RH  039%=      5-min Rain = 0
KRO1 210402Z 14011KT 30/15 A2988 RMK A01 T03010145  RH  039%=      5-min Rain = 0
KRO1 210403Z 15011KT 30/15 A2988 RMK A01 T03020146  RH  039%=      5-min Rain = 0
KRO1 210404Z 15011KT 30/15 A2988 RMK A01 T03020146  RH  039%=      5-min Rain = 0
KRO1 210405Z 15011KT 30/15 A2988 RMK A01 T03020146  RH  039%=      5-min Rain = 0
KRO1 210406Z 15011KT 30/15 A2988 RMK A01 T03010146  RH  039%=      5-min Rain = 0
KRO1 210407Z 14011KT 30/15 A2988 RMK A01 T03000145  RH  039%=      5-min Rain = 0
KRO1 210408Z 15011KT 30/15 A2988 RMK A01 T03000145  RH  039%=      5-min Rain = 0
KRO1 210409Z 15011KT 30/15 A2988 RMK A01 T03000145  RH  039%=      5-min Rain = 0
KRO1 210410Z 14011KT 30/15 A2988 RMK A01 T03000145  RH  039%=      5-min Rain = 0
KRO1 210411Z 15011KT 30/15 A2988 RMK A01 T03000145  RH  039%=      5-min Rain = 0
KRO1 210412Z 15011KT 30/15 A2988 RMK A01 T03000145  RH  039%=      5-min Rain = 0
KRO1 210413Z 15012KT 30/15 A2988 RMK A01 T03000145  RH  039%=      5-min Rain = 0
KRO1 210414Z 15011KT 30/15 A2988 RMK A01 T02990145  RH  039%=      5-min Rain = 0
KRO1 210415Z 15011KT 30/15 A2988 RMK A01 T02990145  RH  039%=      5-min Rain = 0
KRO1 210416Z 15011KT 30/14 A2988 RMK A01 T02990144  RH  039%=      5-min Rain = 0
KRO1 210417Z 15011KT 30/14 A2988 RMK A01 T02990144  RH  039%=      5-min Rain = 0
KRO1 210418Z 15012KT 30/14 A2988 RMK A01 T02990144  RH  039%=      5-min Rain = 0
KRO1 210419Z 15012KT 30/14 A2988 RMK A01 T02990144  RH  039%=      5-min Rain = 0
KRO1 210420Z 15012KT 30/14 A2988 RMK A01 T02990144  RH  039%=      5-min Rain = 0
KRO1 210421Z 15011KT 30/14 A2988 RMK A01 T02990143  RH  039%=      5-min Rain = 0
KRO1 210422Z 15012KT 30/14 A2988 RMK A01 T03000143  RH  039%=      5-min Rain = 0
KRO1 210423Z 15011KT 30/14 A2989 RMK A01 T03000144  RH  039%=      5-min Rain = 0
KRO1 210424Z 15011KT 30/14 A2989 RMK A01 T02990144  RH  039%=      5-min Rain = 0
KRO1 210425Z 15011KT 30/14 A2989 RMK A01 T02990144  RH  039%=      5-min Rain = 0
KRO1 210426Z 15011KT 30/14 A2989 RMK A01 T02990144  RH  039%=      5-min Rain = 0
KRO1 210427Z 15011KT 30/14 A2989 RMK A01 T02990144  RH  039%=      5-min Rain = 0
KRO1 210428Z 15011KT 30/14 A2989 RMK A01 T02980143  RH  039%=      5-min Rain = 0
KRO1 210429Z 15012KT 30/14 A2989 RMK A01 T02990144  RH  039%=      5-min Rain = 0
KRO1 210430Z 15011KT 30/14 A2989 RMK A01 T02980143  RH  039%=      5-min Rain = 0
KRO1 210431Z 15012KT 30/14 A2989 RMK A01 T02990143  RH  039%=      5-min Rain = 0
KRO1 210432Z 15012KT 30/14 A2989 RMK A01 T02990142  RH  038%=      5-min Rain = 0
KRO1 210433Z 15013KT 30/14 A2989 RMK A01 T03000142  RH  038%=      5-min Rain = 0
KRO1 210434Z 15012KT 30/14 A2989 RMK A01 T03010142  RH  038%=      5-min Rain = 0
KRO1 210435Z 15012KT 30/14 A2989 RMK A01 T03010142  RH  038%=      5-min Rain = 0
KRO1 210436Z 15011KT 30/14 A2989 RMK A01 T03010142  RH  038%=      5-min Rain = 0
KRO1 210437Z 15011KT 30/14 A2989 RMK A01 T03010142  RH  038%=      5-min Rain = 0
KRO1 210438Z 15012KT 30/14 A2989 RMK A01 T03000142  RH  038%=      5-min Rain = 0
KRO1 210439Z 15011KT 30/14 A2989 RMK A01 T03000142  RH  038%=      5-min Rain = 0
KRO1 210440Z 15012KT 30/14 A2989 RMK A01 T03000141  RH  038%=      5-min Rain = 0
KRO1 210441Z 15011KT 30/14 A2989 RMK A01 T03010141  RH  038%=      5-min Rain = 0
KRO1 210442Z 15011KT 30/14 A2989 RMK A01 T03010142  RH  038%=      5-min Rain = 0
KRO1 210443Z 15012KT 30/14 A2989 RMK A01 T03010141  RH  038%=      5-min Rain = 0
KRO1 210444Z 15012KT 30/14 A2989 RMK A01 T03000141  RH  038%=      5-min Rain = 0
KRO1 210445Z 15012KT 30/14 A2989 RMK A01 T03010141  RH  038%=      5-min Rain = 0
KRO1 210446Z 15011KT 30/14 A2989 RMK A01 T03010141  RH  038%=      5-min Rain = 0
KRO1 210447Z 15011KT 30/14 A2989 RMK A01 T03000142  RH  038%=      5-min Rain = 0
KRO1 210448Z 15010KT 30/14 A2989 RMK A01 T02990141  RH  038%=      5-min Rain = 0
KRO1 210449Z 15011KT 30/14 A2989 RMK A01 T02990141  RH  038%=      5-min Rain = 0
KRO1 210450Z 15012KT 30/14 A2989 RMK A01 T02990141  RH  038%=      5-min Rain = 0
KRO1 210451Z 15011KT 30/14 A2989 RMK A01 T02990141  RH  038%=      5-min Rain = 0
KRO1 210452Z 15012KT 30/14 A2989 RMK A01 T02990140  RH  038%=      5-min Rain = 0
KRO1 210453Z 15011KT 30/14 A2989 RMK A01 T02990140  RH  038%=      5-min Rain = 0
KRO1 210454Z 15011KT 30/14 A2989 RMK A01 T02990140  RH  038%=      5-min Rain = 0
KRO1 210455Z 15011KT 30/14 A2989 RMK A01 T02990140  RH  038%=      5-min Rain = 0
KRO1 210456Z 15011KT 30/14 A299 RMK A01 T02990140  RH  038%=      5-min Rain = 0
KRO1 210457Z 15011KT 30/14 A299 RMK A01 T02990141  RH  038%=      5-min Rain = 0
KRO1 210458Z 15011KT 30/14 A299 RMK A01 T02980140  RH  038%=      5-min Rain = 0
KRO1 210459Z 15011KT 30/14 A299 RMK A01 T02980140  RH  038%=      5-min Rain = 0

Page generated in 0.128 seconds.